Observation data for Sterling City on 04/22/2019      Previous  Date  Next       Current Mesonet Observations  Soil Data  Daily Summary Page  Observations in Plain Language
KSC1 220500Z 13006KT 20/14 A2994 RMK A01 T01990138  RH  068%=      5-min Rain = 0
KSC1 220501Z 13006KT 20/14 A2994 RMK A01 T01990138  RH  068%=      5-min Rain = 0
KSC1 220502Z 14007KT 20/14 A2994 RMK A01 T01980138  RH  068%=      5-min Rain = 0
KSC1 220503Z 13005KT 20/14 A2994 RMK A01 T01970138  RH  069%=      5-min Rain = 0
KSC1 220504Z 14005KT 20/14 A2994 RMK A01 T01970138  RH  069%=      5-min Rain = 0
KSC1 220505Z 13006KT 20/14 A2994 RMK A01 T01970139  RH  069%=      5-min Rain = 0
KSC1 220506Z 14005KT 20/14 A2994 RMK A01 T01970139  RH  069%=      5-min Rain = 0
KSC1 220507Z 14004KT 20/14 A2994 RMK A01 T01970139  RH  069%=      5-min Rain = 0
KSC1 220508Z 13004KT 20/14 A2994 RMK A01 T01970139  RH  069%=      5-min Rain = 0
KSC1 220509Z 13005KT 20/14 A2994 RMK A01 T01970139  RH  069%=      5-min Rain = 0
KSC1 220510Z 13006KT 20/14 A2994 RMK A01 T01960138  RH  069%=      5-min Rain = 0
KSC1 220511Z 13006KT 20/14 A2994 RMK A01 T01960139  RH  069%=      5-min Rain = 0
KSC1 220512Z 13005KT 20/14 A2994 RMK A01 T01960138  RH  069%=      5-min Rain = 0
KSC1 220513Z 13005KT 20/14 A2994 RMK A01 T01960139  RH  069%=      5-min Rain = 0
KSC1 220514Z 13005KT 20/14 A2994 RMK A01 T01960139  RH  069%=      5-min Rain = 0
KSC1 220515Z 14004KT 20/14 A2994 RMK A01 T01960139  RH  069%=      5-min Rain = 0
KSC1 220516Z 14004KT 20/14 A2994 RMK A01 T01950139  RH  070%=      5-min Rain = 0
KSC1 220517Z 14005KT 20/14 A2994 RMK A01 T01960139  RH  070%=      5-min Rain = 0
KSC1 220518Z 14005KT 20/14 A2994 RMK A01 T01960139  RH  070%=      5-min Rain = 0
KSC1 220519Z 13005KT 20/14 A2994 RMK A01 T01970139  RH  069%=      5-min Rain = 0
KSC1 220520Z 14005KT 20/14 A2994 RMK A01 T01970139  RH  069%=      5-min Rain = 0
KSC1 220521Z 13004KT 20/14 A2994 RMK A01 T01970139  RH  069%=      5-min Rain = 0
KSC1 220522Z 13005KT 20/14 A2994 RMK A01 T01980139  RH  069%=      5-min Rain = 0
KSC1 220523Z 13005KT 20/14 A2994 RMK A01 T01980139  RH  069%=      5-min Rain = 0
KSC1 220524Z 13006KT 20/14 A2994 RMK A01 T01980139  RH  069%=      5-min Rain = 0
KSC1 220525Z 14005KT 20/14 A2994 RMK A01 T01980139  RH  069%=      5-min Rain = 0
KSC1 220526Z 14005KT 20/14 A2994 RMK A01 T01980139  RH  069%=      5-min Rain = 0
KSC1 220527Z 13004KT 20/14 A2994 RMK A01 T01970139  RH  069%=      5-min Rain = 0
KSC1 220528Z 14004KT 20/14 A2994 RMK A01 T01970139  RH  069%=      5-min Rain = 0
KSC1 220529Z 14005KT 20/14 A2994 RMK A01 T01960139  RH  070%=      5-min Rain = 0
KSC1 220530Z 14004KT 20/14 A2994 RMK A01 T01960139  RH  070%=      5-min Rain = 0
KSC1 220531Z 15006KT 20/14 A2994 RMK A01 T01960139  RH  070%=      5-min Rain = 0
KSC1 220532Z 15004KT 20/14 A2994 RMK A01 T01970139  RH  069%=      5-min Rain = 0
KSC1 220533Z 14004KT 20/14 A2994 RMK A01 T01980140  RH  069%=      5-min Rain = 0
KSC1 220534Z 15005KT 20/14 A2994 RMK A01 T01980140  RH  069%=      5-min Rain = 0
KSC1 220535Z 15005KT 20/14 A2994 RMK A01 T01980140  RH  069%=      5-min Rain = 0
KSC1 220536Z 16005KT 20/14 A2994 RMK A01 T01980140  RH  069%=      5-min Rain = 0
KSC1 220537Z 16004KT 20/14 A2994 RMK A01 T01990140  RH  069%=      5-min Rain = 0
KSC1 220538Z 15004KT 20/14 A2994 RMK A01 T01990140  RH  069%=      5-min Rain = 0
KSC1 220539Z 15005KT 20/14 A2994 RMK A01 T01990140  RH  069%=      5-min Rain = 0
KSC1 220540Z 15005KT 20/14 A2994 RMK A01 T01990140  RH  069%=      5-min Rain = 0
KSC1 220541Z 15006KT 20/14 A2994 RMK A01 T01990140  RH  069%=      5-min Rain = 0
KSC1 220542Z 15005KT 20/14 A2994 RMK A01 T01990140  RH  069%=      5-min Rain = 0
KSC1 220543Z 14004KT 20/14 A2994 RMK A01 T01990140  RH  069%=      5-min Rain = 0
KSC1 220544Z 15004KT 20/14 A2994 RMK A01 T01990140  RH  069%=      5-min Rain = 0
KSC1 220545Z 15004KT 20/14 A2993 RMK A01 T01990140  RH  069%=      5-min Rain = 0
KSC1 220546Z 15004KT 20/14 A2994 RMK A01 T01980140  RH  069%=      5-min Rain = 0
KSC1 220547Z 14005KT 20/14 A2993 RMK A01 T01980140  RH  069%=      5-min Rain = 0
KSC1 220548Z 15004KT 20/14 A2994 RMK A01 T01980140  RH  069%=      5-min Rain = 0
KSC1 220549Z 14004KT 20/14 A2994 RMK A01 T01980140  RH  069%=      5-min Rain = 0
KSC1 220550Z 14003KT 20/14 A2994 RMK A01 T01980140  RH  069%=      5-min Rain = 0
KSC1 220551Z 15006KT 20/14 A2994 RMK A01 T01980140  RH  069%=      5-min Rain = 0
KSC1 220552Z 14003KT 20/14 A2994 RMK A01 T01980140  RH  069%=      5-min Rain = 0
KSC1 220553Z 15004KT 20/14 A2994 RMK A01 T01990140  RH  069%=      5-min Rain = 0
KSC1 220554Z 15005KT 20/14 A2994 RMK A01 T01990140  RH  069%=      5-min Rain = 0
KSC1 220555Z 15005KT 20/14 A2994 RMK A01 T01980140  RH  069%=      5-min Rain = 0
KSC1 220556Z 13004KT 20/14 A2994 RMK A01 T01980140  RH  069%=      5-min Rain = 0
KSC1 220557Z 13004KT 20/14 A2994 RMK A01 T01970140  RH  070%=      5-min Rain = 0
KSC1 220558Z 15004KT 20/14 A2994 RMK A01 T01970140  RH  070%=      5-min Rain = 0
KSC1 220559Z 14004KT 20/14 A2994 RMK A01 T01960140  RH  070%=      5-min Rain = 0
KSC1 220600Z 14006KT 20/14 A2994 RMK A01 T01960140  RH  070%=      5-min Rain = 0
KSC1 220601Z 14004KT 20/14 A2994 RMK A01 T01970141  RH  070%=      5-min Rain = 0
KSC1 220602Z 14005KT 20/14 A2994 RMK A01 T01970141  RH  070%=      5-min Rain = 0
KSC1 220603Z 14004KT 20/14 A2994 RMK A01 T01970141  RH  070%=      5-min Rain = 0
KSC1 220604Z 13003KT 20/14 A2994 RMK A01 T01970140  RH  070%=      5-min Rain = 0
KSC1 220605Z 12004KT 20/14 A2994 RMK A01 T01960140  RH  070%=      5-min Rain = 0
KSC1 220606Z 14004KT 20/14 A2994 RMK A01 T01950140  RH  071%=      5-min Rain = 0
KSC1 220607Z 12003KT 19/14 A2994 RMK A01 T01940140  RH  071%=      5-min Rain = 0
KSC1 220608Z 12003KT 19/14 A2994 RMK A01 T01930140  RH  071%=      5-min Rain = 0
KSC1 220609Z 12003KT 19/14 A2994 RMK A01 T01930140  RH  072%=      5-min Rain = 0
KSC1 220610Z 10003KT 19/14 A2994 RMK A01 T01920140  RH  072%=      5-min Rain = 0
KSC1 220611Z 12003KT 19/14 A2994 RMK A01 T01910140  RH  072%=      5-min Rain = 0
KSC1 220612Z 13003KT 19/14 A2994 RMK A01 T01910140  RH  072%=      5-min Rain = 0
KSC1 220613Z 13002KT 19/14 A2994 RMK A01 T01900140  RH  073%=      5-min Rain = 0
KSC1 220614Z 11003KT 19/14 A2994 RMK A01 T01890139  RH  073%=      5-min Rain = 0
KSC1 220615Z 12003KT 19/14 A2994 RMK A01 T01880139  RH  073%=      5-min Rain = 0
KSC1 220616Z 11003KT 19/14 A2994 RMK A01 T01870139  RH  073%=      5-min Rain = 0
KSC1 220617Z 12004KT 19/14 A2994 RMK A01 T01870139  RH  074%=      5-min Rain = 0
KSC1 220618Z 12004KT 19/14 A2994 RMK A01 T01850138  RH  074%=      5-min Rain = 0
KSC1 220619Z 11003KT 18/14 A2994 RMK A01 T01840139  RH  075%=      5-min Rain = 0
KSC1 220620Z 11003KT 18/14 A2994 RMK A01 T01830139  RH  075%=      5-min Rain = 0
KSC1 220621Z 11004KT 18/14 A2994 RMK A01 T01830139  RH  075%=      5-min Rain = 0
KSC1 220622Z 11003KT 18/14 A2994 RMK A01 T01820139  RH  076%=      5-min Rain = 0
KSC1 220623Z 10004KT 18/14 A2994 RMK A01 T01820139  RH  076%=      5-min Rain = 0
KSC1 220624Z 11004KT 18/14 A2994 RMK A01 T01810139  RH  076%=      5-min Rain = 0
KSC1 220625Z 11004KT 18/14 A2994 RMK A01 T01810139  RH  076%=      5-min Rain = 0
KSC1 220626Z 11004KT 18/14 A2994 RMK A01 T01810139  RH  077%=      5-min Rain = 0
KSC1 220627Z 11004KT 18/14 A2994 RMK A01 T01800139  RH  077%=      5-min Rain = 0
KSC1 220628Z 11004KT 18/14 A2994 RMK A01 T01790139  RH  077%=      5-min Rain = 0
KSC1 220629Z 11005KT 18/14 A2994 RMK A01 T01790139  RH  078%=      5-min Rain = 0
KSC1 220630Z 11005KT 18/14 A2994 RMK A01 T01780139  RH  078%=      5-min Rain = 0
KSC1 220631Z 11004KT 18/14 A2994 RMK A01 T01780140  RH  078%=      5-min Rain = 0
KSC1 220632Z 11005KT 18/14 A2994 RMK A01 T01790140  RH  078%=      5-min Rain = 0
KSC1 220633Z 12004KT 18/14 A2994 RMK A01 T01780140  RH  078%=      5-min Rain = 0
KSC1 220634Z 11004KT 18/14 A2994 RMK A01 T01780140  RH  078%=      5-min Rain = 0
KSC1 220635Z 11004KT 18/14 A2994 RMK A01 T01780140  RH  078%=      5-min Rain = 0
KSC1 220636Z 12004KT 18/14 A2994 RMK A01 T01770140  RH  079%=      5-min Rain = 0
KSC1 220637Z 12004KT 18/14 A2994 RMK A01 T01770141  RH  079%=      5-min Rain = 0
KSC1 220638Z 13005KT 18/14 A2994 RMK A01 T01770141  RH  079%=      5-min Rain = 0
KSC1 220639Z 12004KT 18/14 A2994 RMK A01 T01780140  RH  079%=      5-min Rain = 0
KSC1 220640Z 12004KT 18/14 A2994 RMK A01 T01780141  RH  079%=      5-min Rain = 0
KSC1 220641Z 11004KT 18/14 A2994 RMK A01 T01780141  RH  079%=      5-min Rain = 0
KSC1 220642Z 11004KT 18/14 A2994 RMK A01 T01780141  RH  079%=      5-min Rain = 0
KSC1 220643Z 11005KT 18/14 A2994 RMK A01 T01780141  RH  079%=      5-min Rain = 0
KSC1 220644Z 11005KT 18/14 A2993 RMK A01 T01780141  RH  079%=      5-min Rain = 0
KSC1 220645Z 11005KT 18/14 A2993 RMK A01 T01790141  RH  079%=      5-min Rain = 0
KSC1 220646Z 11005KT 18/14 A2993 RMK A01 T01790141  RH  079%=      5-min Rain = 0
KSC1 220647Z 11005KT 18/14 A2993 RMK A01 T01790141  RH  079%=      5-min Rain = 0
KSC1 220648Z 11004KT 18/14 A2993 RMK A01 T01790141  RH  078%=      5-min Rain = 0
KSC1 220649Z 12005KT 18/14 A2993 RMK A01 T01790141  RH  078%=      5-min Rain = 0
KSC1 220650Z 12005KT 18/14 A2993 RMK A01 T01790141  RH  078%=      5-min Rain = 0
KSC1 220651Z 12004KT 18/14 A2993 RMK A01 T01800141  RH  078%=      5-min Rain = 0
KSC1 220652Z 12005KT 18/14 A2993 RMK A01 T01800141  RH  078%=      5-min Rain = 0
KSC1 220653Z 12005KT 18/14 A2993 RMK A01 T01800141  RH  078%=      5-min Rain = 0
KSC1 220654Z 12004KT 18/14 A2993 RMK A01 T01800141  RH  078%=      5-min Rain = 0
KSC1 220655Z 12004KT 18/14 A2993 RMK A01 T01800141  RH  078%=      5-min Rain = 0
KSC1 220656Z 12004KT 18/14 A2993 RMK A01 T01800141  RH  078%=      5-min Rain = 0
KSC1 220657Z 13003KT 18/14 A2993 RMK A01 T01800142  RH  078%=      5-min Rain = 0
KSC1 220658Z 12003KT 18/14 A2993 RMK A01 T01800142  RH  078%=      5-min Rain = 0
KSC1 220659Z 13003KT 18/14 A2993 RMK A01 T01800141  RH  078%=      5-min Rain = 0
KSC1 220700Z 12004KT 18/14 A2993 RMK A01 T01800141  RH  078%=      5-min Rain = 0
KSC1 220701Z 12004KT 18/14 A2993 RMK A01 T01800141  RH  078%=      5-min Rain = 0
KSC1 220702Z 12003KT 18/14 A2993 RMK A01 T01790141  RH  078%=      5-min Rain = 0
KSC1 220703Z 12004KT 18/14 A2993 RMK A01 T01790141  RH  078%=      5-min Rain = 0
KSC1 220704Z 12005KT 18/14 A2993 RMK A01 T01790140  RH  078%=      5-min Rain = 0
KSC1 220705Z 12004KT 18/14 A2993 RMK A01 T01790141  RH  078%=      5-min Rain = 0
KSC1 220706Z 13004KT 18/14 A2993 RMK A01 T01800141  RH  078%=      5-min Rain = 0
KSC1 220707Z 13004KT 18/14 A2993 RMK A01 T01800141  RH  078%=      5-min Rain = 0
KSC1 220708Z 13004KT 18/14 A2993 RMK A01 T01800141  RH  078%=      5-min Rain = 0
KSC1 220709Z 13004KT 18/14 A2993 RMK A01 T01810141  RH  077%=      5-min Rain = 0
KSC1 220710Z 14006KT 18/14 A2993 RMK A01 T01820141  RH  077%=      5-min Rain = 0
KSC1 220711Z 13006KT 19/14 A2993 RMK A01 T01850142  RH  076%=      5-min Rain = 0
KSC1 220712Z 13007KT 19/14 A2993 RMK A01 T01880142  RH  075%=      5-min Rain = 0
KSC1 220713Z 13006KT 19/14 A2993 RMK A01 T01890142  RH  074%=      5-min Rain = 0
KSC1 220714Z 13008KT 19/14 A2993 RMK A01 T01900141  RH  073%=      5-min Rain = 0
KSC1 220715Z 14004KT 19/14 A2993 RMK A01 T01920141  RH  072%=      5-min Rain = 0
KSC1 220716Z 13005KT 19/14 A2993 RMK A01 T01920141  RH  072%=      5-min Rain = 0
KSC1 220717Z 12005KT 19/14 A2992 RMK A01 T01920141  RH  072%=      5-min Rain = 0
KSC1 220718Z 13006KT 19/14 A2992 RMK A01 T01920141  RH  072%=      5-min Rain = 0
KSC1 220719Z 13006KT 19/14 A2992 RMK A01 T01920140  RH  072%=      5-min Rain = 0
KSC1 220720Z 13007KT 19/14 A2992 RMK A01 T01920140  RH  072%=      5-min Rain = 0
KSC1 220721Z 13005KT 19/14 A2993 RMK A01 T01930141  RH  072%=      5-min Rain = 0
KSC1 220722Z 13004KT 19/14 A2993 RMK A01 T01930140  RH  071%=      5-min Rain = 0
KSC1 220723Z 14006KT 19/14 A2993 RMK A01 T01930140  RH  071%=      5-min Rain = 0
KSC1 220724Z 14005KT 19/14 A2993 RMK A01 T01930140  RH  071%=      5-min Rain = 0
KSC1 220725Z 14004KT 19/14 A2993 RMK A01 T01930140  RH  071%=      5-min Rain = 0
KSC1 220726Z 13006KT 19/14 A2993 RMK A01 T01930140  RH  071%=      5-min Rain = 0
KSC1 220727Z 13005KT 19/14 A2993 RMK A01 T01930140  RH  071%=      5-min Rain = 0
KSC1 220728Z 13006KT 19/14 A2993 RMK A01 T01930140  RH  071%=      5-min Rain = 0
KSC1 220729Z 13005KT 19/14 A2993 RMK A01 T01930140  RH  071%=      5-min Rain = 0
KSC1 220730Z 13005KT 19/14 A2993 RMK A01 T01930140  RH  071%=      5-min Rain = 0
KSC1 220731Z 13005KT 19/14 A2993 RMK A01 T01940140  RH  071%=      5-min Rain = 0
KSC1 220732Z 13007KT 19/14 A2993 RMK A01 T01940140  RH  071%=      5-min Rain = 0
KSC1 220733Z 13006KT 19/14 A2993 RMK A01 T01940140  RH  071%=      5-min Rain = 0
KSC1 220734Z 13007KT 19/14 A2993 RMK A01 T01940140  RH  071%=      5-min Rain = 0
KSC1 220735Z 13006KT 20/14 A2993 RMK A01 T01950140  RH  070%=      5-min Rain = 0
KSC1 220736Z 13006KT 20/14 A2993 RMK A01 T01950140  RH  070%=      5-min Rain = 0
KSC1 220737Z 12005KT 19/14 A2993 RMK A01 T01940139  RH  070%=      5-min Rain = 0
KSC1 220738Z 13009KT 19/14 A2993 RMK A01 T01940140  RH  071%=      5-min Rain = 0
KSC1 220739Z 12006KT 19/14 A2993 RMK A01 T01940139  RH  071%=      5-min Rain = 0
KSC1 220740Z 12006KT 19/14 A2993 RMK A01 T01940140  RH  071%=      5-min Rain = 0
KSC1 220741Z 13005KT 19/14 A2993 RMK A01 T01930140  RH  071%=      5-min Rain = 0
KSC1 220742Z 12005KT 19/14 A2993 RMK A01 T01920139  RH  071%=      5-min Rain = 0
KSC1 220743Z 12006KT 19/14 A2993 RMK A01 T01910139  RH  072%=      5-min Rain = 0
KSC1 220744Z 11005KT 19/14 A2993 RMK A01 T01910139  RH  072%=      5-min Rain = 0
KSC1 220745Z 12005KT 19/14 A2993 RMK A01 T01900139  RH  073%=      5-min Rain = 0
KSC1 220746Z 11004KT 19/14 A2993 RMK A01 T01880139  RH  073%=      5-min Rain = 0
KSC1 220747Z 12005KT 19/14 A2993 RMK A01 T01870139  RH  074%=      5-min Rain = 0
KSC1 220748Z 12005KT 19/14 A2993 RMK A01 T01870139  RH  074%=      5-min Rain = 0
KSC1 220749Z 12004KT 19/14 A2993 RMK A01 T01860139  RH  074%=      5-min Rain = 0
KSC1 220750Z 11006KT 19/14 A2993 RMK A01 T01860139  RH  074%=      5-min Rain = 0
KSC1 220751Z 12005KT 19/14 A2993 RMK A01 T01850139  RH  074%=      5-min Rain = 0
KSC1 220752Z 12004KT 19/14 A2993 RMK A01 T01860139  RH  074%=      5-min Rain = 0
KSC1 220753Z 12005KT 19/14 A2993 RMK A01 T01860139  RH  074%=      5-min Rain = 0
KSC1 220754Z 12005KT 19/14 A2993 RMK A01 T01850139  RH  074%=      5-min Rain = 0
KSC1 220755Z 12004KT 19/14 A2993 RMK A01 T01850139  RH  074%=      5-min Rain = 0
KSC1 220756Z 12005KT 19/14 A2993 RMK A01 T01850139  RH  074%=      5-min Rain = 0
KSC1 220757Z 13005KT 19/14 A2993 RMK A01 T01850138  RH  074%=      5-min Rain = 0
KSC1 220758Z 13005KT 19/14 A2993 RMK A01 T01850139  RH  075%=      5-min Rain = 0
KSC1 220759Z 13007KT 18/14 A2993 RMK A01 T01840139  RH  075%=      5-min Rain = 0
KSC1 220800Z 13006KT 19/14 A2992 RMK A01 T01850139  RH  074%=      5-min Rain = 0
KSC1 220801Z 13007KT 19/14 A2992 RMK A01 T01850139  RH  074%=      5-min Rain = 0
KSC1 220802Z 13006KT 19/14 A2992 RMK A01 T01860139  RH  074%=      5-min Rain = 0
KSC1 220803Z 13007KT 19/14 A2992 RMK A01 T01860139  RH  074%=      5-min Rain = 0
KSC1 220804Z 12005KT 19/14 A2992 RMK A01 T01870139  RH  074%=      5-min Rain = 0
KSC1 220805Z 13006KT 19/14 A2992 RMK A01 T01870139  RH  074%=      5-min Rain = 0
KSC1 220806Z 13005KT 19/14 A2992 RMK A01 T01870139  RH  074%=      5-min Rain = 0
KSC1 220807Z 13007KT 19/14 A2992 RMK A01 T01860139  RH  074%=      5-min Rain = 0
KSC1 220808Z 13007KT 19/14 A2992 RMK A01 T01860138  RH  074%=      5-min Rain = 0
KSC1 220809Z 13007KT 19/14 A2992 RMK A01 T01860138  RH  074%=      5-min Rain = 0
KSC1 220810Z 13006KT 19/14 A2992 RMK A01 T01860138  RH  074%=      5-min Rain = 0
KSC1 220811Z 13006KT 19/14 A2992 RMK A01 T01860138  RH  074%=      5-min Rain = 0
KSC1 220812Z 14009KT 19/14 A2992 RMK A01 T01860138  RH  073%=      5-min Rain = 0
KSC1 220813Z 14008KT 19/14 A2992 RMK A01 T01870138  RH  073%=      5-min Rain = 0
KSC1 220814Z 13006KT 19/14 A2992 RMK A01 T01880139  RH  073%=      5-min Rain = 0
KSC1 220815Z 13008KT 19/14 A2992 RMK A01 T01880138  RH  073%=      5-min Rain = 0
KSC1 220816Z 14009KT 19/14 A2992 RMK A01 T01880138  RH  073%=      5-min Rain = 0
KSC1 220817Z 14008KT 19/14 A2992 RMK A01 T01890138  RH  073%=      5-min Rain = 0
KSC1 220818Z 14008KT 19/14 A2992 RMK A01 T01890138  RH  072%=      5-min Rain = 0
KSC1 220819Z 14006KT 19/14 A2992 RMK A01 T01890138  RH  072%=      5-min Rain = 0
KSC1 220820Z 13005KT 19/14 A2992 RMK A01 T01890138  RH  072%=      5-min Rain = 0
KSC1 220821Z 13006KT 19/14 A2992 RMK A01 T01880138  RH  073%=      5-min Rain = 0
KSC1 220822Z 13006KT 19/14 A2993 RMK A01 T01880138  RH  073%=      5-min Rain = 0
KSC1 220823Z 12006KT 19/14 A2993 RMK A01 T01870138  RH  073%=      5-min Rain = 0
KSC1 220824Z 12006KT 19/14 A2993 RMK A01 T01870138  RH  073%=      5-min Rain = 0
KSC1 220825Z 12005KT 19/14 A2993 RMK A01 T01860138  RH  074%=      5-min Rain = 0
KSC1 220826Z 12006KT 19/14 A2993 RMK A01 T01850138  RH  074%=      5-min Rain = 0
KSC1 220827Z 12007KT 19/14 A2993 RMK A01 T01850138  RH  074%=      5-min Rain = 0
KSC1 220828Z 13008KT 19/14 A2993 RMK A01 T01850138  RH  074%=      5-min Rain = 0
KSC1 220829Z 14006KT 19/14 A2993 RMK A01 T01860138  RH  074%=      5-min Rain = 0
KSC1 220830Z 13005KT 19/14 A2992 RMK A01 T01860138  RH  074%=      5-min Rain = 0
KSC1 220831Z 13007KT 19/14 A2992 RMK A01 T01860138  RH  074%=      5-min Rain = 0
KSC1 220832Z 13005KT 19/14 A2992 RMK A01 T01860139  RH  074%=      5-min Rain = 0
KSC1 220833Z 12006KT 19/14 A2992 RMK A01 T01860138  RH  074%=      5-min Rain = 0
KSC1 220834Z 14006KT 19/14 A2992 RMK A01 T01850138  RH  074%=      5-min Rain = 0
KSC1 220835Z 12005KT 19/14 A2992 RMK A01 T01850138  RH  074%=      5-min Rain = 0
KSC1 220836Z 13007KT 18/14 A2992 RMK A01 T01840138  RH  075%=      5-min Rain = 0
KSC1 220837Z 13008KT 18/14 A2992 RMK A01 T01830139  RH  075%=      5-min Rain = 0
KSC1 220838Z 13006KT 18/14 A2992 RMK A01 T01840139  RH  075%=      5-min Rain = 0
KSC1 220839Z 13005KT 18/14 A2992 RMK A01 T01840139  RH  075%=      5-min Rain = 0
KSC1 220840Z 12007KT 19/14 A2992 RMK A01 T01850139  RH  075%=      5-min Rain = 0
KSC1 220841Z 13008KT 18/14 A2992 RMK A01 T01840139  RH  075%=      5-min Rain = 0
KSC1 220842Z 12006KT 18/14 A2992 RMK A01 T01840139  RH  075%=      5-min Rain = 0
KSC1 220843Z 13008KT 18/14 A2992 RMK A01 T01840140  RH  075%=      5-min Rain = 0
KSC1 220844Z 13011KT 18/14 A2992 RMK A01 T01840140  RH  075%=      5-min Rain = 0
KSC1 220845Z 12007KT 18/14 A2992 RMK A01 T01840140  RH  076%=      5-min Rain = 0
KSC1 220846Z 12006KT 18/14 A2992 RMK A01 T01840140  RH  075%=      5-min Rain = 0
KSC1 220847Z 13007KT 18/14 A2992 RMK A01 T01830140  RH  076%=      5-min Rain = 0
KSC1 220848Z 13007KT 18/14 A2992 RMK A01 T01830140  RH  076%=      5-min Rain = 0
KSC1 220849Z 13007G12KT 18/14 A2992 RMK A01 T01830140  RH  076%=      5-min Rain = 0
KSC1 220850Z 13008KT 18/14 A2992 RMK A01 T01830140  RH  076%=      5-min Rain = 0
KSC1 220851Z 13010KT 18/14 A2992 RMK A01 T01830141  RH  076%=      5-min Rain = 0
KSC1 220852Z 13006KT 18/14 A2992 RMK A01 T01830140  RH  076%=      5-min Rain = 0
KSC1 220853Z 12006KT 18/14 A2992 RMK A01 T01840141  RH  076%=      5-min Rain = 0
KSC1 220854Z 13006KT 18/14 A2992 RMK A01 T01830140  RH  076%=      5-min Rain = 0
KSC1 220855Z 13008KT 18/14 A2992 RMK A01 T01830141  RH  076%=      5-min Rain = 0
KSC1 220856Z 13007KT 18/14 A2992 RMK A01 T01820141  RH  077%=      5-min Rain = 0
KSC1 220857Z 12007KT 18/14 A2992 RMK A01 T01820141  RH  077%=      5-min Rain = 0
KSC1 220858Z 13007KT 18/14 A2992 RMK A01 T01820141  RH  077%=      5-min Rain = 0
KSC1 220859Z 12006KT 18/14 A2992 RMK A01 T01810141  RH  077%=      5-min Rain = 0
KSC1 220900Z 11005KT 18/14 A2992 RMK A01 T01800140  RH  078%=      5-min Rain = 0
KSC1 220901Z 12005KT 18/14 A2992 RMK A01 T01790140  RH  078%=      5-min Rain = 0
KSC1 220902Z 11004KT 18/14 A2992 RMK A01 T01770140  RH  079%=      5-min Rain = 0
KSC1 220903Z 10004KT 18/14 A2992 RMK A01 T01770140  RH  079%=      5-min Rain = 0
KSC1 220904Z 09004KT 18/14 A2992 RMK A01 T01760140  RH  080%=      5-min Rain = 0
KSC1 220905Z 07004KT 18/14 A2992 RMK A01 T01750140  RH  080%=      5-min Rain = 0
KSC1 220906Z 07004KT 17/14 A2992 RMK A01 T01740140  RH  080%=      5-min Rain = 0
KSC1 220907Z 05004KT 17/14 A2992 RMK A01 T01730138  RH  080%=      5-min Rain = 0
KSC1 220908Z 04004KT 17/14 A2992 RMK A01 T01700136  RH  081%=      5-min Rain = 0
KSC1 220909Z 04005KT 17/14 A2992 RMK A01 T01670136  RH  082%=      5-min Rain = 0
KSC1 220910Z 05005KT 17/14 A2992 RMK A01 T01650136  RH  083%=      5-min Rain = 0
KSC1 220911Z 04005KT 16/14 A2992 RMK A01 T01620136  RH  084%=      5-min Rain = 0
KSC1 220912Z 04005KT 16/14 A2992 RMK A01 T01610137  RH  086%=      5-min Rain = 0
KSC1 220913Z 04004KT 16/14 A2992 RMK A01 T01600137  RH  086%=      5-min Rain = 0
KSC1 220914Z 04006KT 16/14 A2992 RMK A01 T01590138  RH  087%=      5-min Rain = 0
KSC1 220915Z 04005KT 16/14 A2992 RMK A01 T01580138  RH  088%=      5-min Rain = 0
KSC1 220916Z 04005KT 16/14 A2993 RMK A01 T01580139  RH  089%=      5-min Rain = 0
KSC1 220917Z 04003KT 16/14 A2993 RMK A01 T01570139  RH  089%=      5-min Rain = 0
KSC1 220918Z 06002KT 16/14 A2993 RMK A01 T01560139  RH  090%=      5-min Rain = 0
KSC1 220919Z 04003KT 16/14 A2993 RMK A01 T01560139  RH  090%=      5-min Rain = 0
KSC1 220920Z 06003KT 16/14 A2993 RMK A01 T01550139  RH  090%=      5-min Rain = 0
KSC1 220921Z 12001KT 15/14 A2993 RMK A01 T01540139  RH  090%=      5-min Rain = 0
KSC1 220922Z 10001KT 15/14 A2993 RMK A01 T01540139  RH  091%=      5-min Rain = 0
KSC1 220923Z 08002KT 15/14 A2993 RMK A01 T01530140  RH  092%=      5-min Rain = 0
KSC1 220924Z 14004KT 15/14 A2993 RMK A01 T01530141  RH  092%=      5-min Rain = 0
KSC1 220925Z 13004KT 16/14 A2993 RMK A01 T01550144  RH  093%=      5-min Rain = 0
KSC1 220926Z 14004KT 16/15 A2993 RMK A01 T01580146  RH  092%=      5-min Rain = 0
KSC1 220927Z 11004KT 16/14 A2993 RMK A01 T01600143  RH  090%=      5-min Rain = 0
KSC1 220928Z 12006KT 16/14 A2993 RMK A01 T01610144  RH  089%=      5-min Rain = 0
KSC1 220929Z 12005KT 16/15 A2993 RMK A01 T01640147  RH  090%=      5-min Rain = 0
KSC1 220930Z 12004KT 17/15 A2993 RMK A01 T01670147  RH  088%=      5-min Rain = 0
KSC1 220931Z 11006KT 17/15 A2993 RMK A01 T01690147  RH  087%=      5-min Rain = 0
KSC1 220932Z 10005KT 17/15 A2992 RMK A01 T01700147  RH  086%=      5-min Rain = 0
KSC1 220933Z 08003KT 17/15 A2993 RMK A01 T01710146  RH  085%=      5-min Rain = 0
KSC1 220934Z 09004KT 17/15 A2993 RMK A01 T01710146  RH  085%=      5-min Rain = 0
KSC1 220935Z 08004KT 17/15 A2993 RMK A01 T01710145  RH  085%=      5-min Rain = 0
KSC1 220936Z 05004KT 17/14 A2993 RMK A01 T01700144  RH  085%=      5-min Rain = 0
KSC1 220937Z 05004KT 17/14 A2993 RMK A01 T01680142  RH  085%=      5-min Rain = 0
KSC1 220938Z 05004KT 17/14 A2993 RMK A01 T01660142  RH  085%=      5-min Rain = 0
KSC1 220939Z 05003KT 17/14 A2993 RMK A01 T01650142  RH  086%=      5-min Rain = 0
KSC1 220940Z 05003KT 16/14 A2993 RMK A01 T01640142  RH  087%=      5-min Rain = 0
KSC1 220941Z 04004KT 16/14 A2993 RMK A01 T01630142  RH  087%=      5-min Rain = 0
KSC1 220942Z 04004KT 16/14 A2993 RMK A01 T01630142  RH  087%=      5-min Rain = 0
KSC1 220943Z 04003KT 16/14 A2993 RMK A01 T01620142  RH  088%=      5-min Rain = 0
KSC1 220944Z 04003KT 16/14 A2993 RMK A01 T01610142  RH  089%=      5-min Rain = 0
KSC1 220945Z 05003KT 16/14 A2993 RMK A01 T01600142  RH  089%=      5-min Rain = 0
KSC1 220946Z 04002KT 16/14 A2993 RMK A01 T01600142  RH  089%=      5-min Rain = 0
KSC1 220947Z 05003KT 16/14 A2993 RMK A01 T01590142  RH  090%=      5-min Rain = 0
KSC1 220948Z 05003KT 16/14 A2993 RMK A01 T01590143  RH  090%=      5-min Rain = 0
KSC1 220949Z 06003KT 16/14 A2993 RMK A01 T01580143  RH  090%=      5-min Rain = 0
KSC1 220950Z 06003KT 16/14 A2993 RMK A01 T01580143  RH  091%=      5-min Rain = 0
KSC1 220951Z 06004KT 16/14 A2993 RMK A01 T01580144  RH  091%=      5-min Rain = 0
KSC1 220952Z 08003KT 16/14 A2993 RMK A01 T01580144  RH  091%=      5-min Rain = 0
KSC1 220953Z 07004KT 16/14 A2993 RMK A01 T01570144  RH  091%=      5-min Rain = 0
KSC1 220954Z 07004KT 16/14 A2993 RMK A01 T01570144  RH  092%=      5-min Rain = 0
KSC1 220955Z 09004KT 16/15 A2993 RMK A01 T01570145  RH  092%=      5-min Rain = 0
KSC1 220956Z 11003KT 16/15 A2993 RMK A01 T01580146  RH  093%=      5-min Rain = 0
KSC1 220957Z 09003KT 16/15 A2993 RMK A01 T01590146  RH  092%=      5-min Rain = 0
KSC1 220958Z 09003KT 16/15 A2993 RMK A01 T01600145  RH  091%=      5-min Rain = 0
KSC1 220959Z 10003KT 16/15 A2993 RMK A01 T01600145  RH  091%=      5-min Rain = 0
KSC1 221000Z 10003KT 16/15 A2993 RMK A01 T01600146  RH  091%=      5-min Rain = 0
KSC1 221001Z 11005KT 16/15 A2993 RMK A01 T01590145  RH  091%=      5-min Rain = 0
KSC1 221002Z 12007KT 16/15 A2993 RMK A01 T01600148  RH  092%=      5-min Rain = 0
KSC1 221003Z 12006KT 16/15 A2993 RMK A01 T01620149  RH  092%=      5-min Rain = 0
KSC1 221004Z 12006KT 16/15 A2994 RMK A01 T01640149  RH  091%=      5-min Rain = 0
KSC1 221005Z 11006KT 17/15 A2994 RMK A01 T01660150  RH  090%=      5-min Rain = 0
KSC1 221006Z 10006KT 17/15 A2994 RMK A01 T01670149  RH  089%=      5-min Rain = 0
KSC1 221007Z 10006KT 17/15 A2994 RMK A01 T01670149  RH  089%=      5-min Rain = 0
KSC1 221008Z 10005KT 17/15 A2994 RMK A01 T01670149  RH  089%=      5-min Rain = 0
KSC1 221009Z 08004KT 17/15 A2994 RMK A01 T01670148  RH  089%=      5-min Rain = 0
KSC1 221010Z 07004KT 17/15 A2994 RMK A01 T01660148  RH  089%=      5-min Rain = 0
KSC1 221011Z 07004KT 17/15 A2994 RMK A01 T01650147  RH  089%=      5-min Rain = 0
KSC1 221012Z 07005KT 16/15 A2993 RMK A01 T01640146  RH  089%=      5-min Rain = 0
KSC1 221013Z 07005KT 16/15 A2993 RMK A01 T01630147  RH  090%=      5-min Rain = 0
KSC1 221014Z 07004KT 16/15 A2993 RMK A01 T01620147  RH  091%=      5-min Rain = 0
KSC1 221015Z 05004KT 16/15 A2993 RMK A01 T01620147  RH  091%=      5-min Rain = 0
KSC1 221016Z 06004KT 16/15 A2994 RMK A01 T01610147  RH  091%=      5-min Rain = 0
KSC1 221017Z 05005KT 16/15 A2994 RMK A01 T01600146  RH  091%=      5-min Rain = 0
KSC1 221018Z 06005KT 16/15 A2994 RMK A01 T01580145  RH  092%=      5-min Rain = 0
KSC1 221019Z 06005KT 16/15 A2994 RMK A01 T01570146  RH  093%=      5-min Rain = 0
KSC1 221020Z 06005KT 16/15 A2993 RMK A01 T01560147  RH  094%=      5-min Rain = 0
KSC1 221021Z 08003KT 16/15 A2994 RMK A01 T01560147  RH  094%=      5-min Rain = 0
KSC1 221022Z 08004KT 16/15 A2994 RMK A01 T01560147  RH  095%=      5-min Rain = 0
KSC1 221023Z 07003KT 16/15 A2994 RMK A01 T01560147  RH  095%=      5-min Rain = 0
KSC1 221024Z 08004KT 16/15 A2994 RMK A01 T01550147  RH  095%=      5-min Rain = 0
KSC1 221025Z 08003KT 15/15 A2994 RMK A01 T01540147  RH  096%=      5-min Rain = 0
KSC1 221026Z 08002KT 15/15 A2994 RMK A01 T01540147  RH  096%=      5-min Rain = 0
KSC1 221027Z 10002KT 15/15 A2994 RMK A01 T01540147  RH  096%=      5-min Rain = 0
KSC1 221028Z 10003KT 15/15 A2994 RMK A01 T01530147  RH  096%=      5-min Rain = 0
KSC1 221029Z 11003KT 15/15 A2994 RMK A01 T01530147  RH  096%=      5-min Rain = 0
KSC1 221030Z 11004KT 15/15 A2994 RMK A01 T01530148  RH  097%=      5-min Rain = 0
KSC1 221031Z 11005KT 15/15 A2994 RMK A01 T01530148  RH  097%=      5-min Rain = 0
KSC1 221032Z 11005KT 15/15 A2994 RMK A01 T01540150  RH  098%=      5-min Rain = 0
KSC1 221033Z 11005KT 16/15 A2994 RMK A01 T01560152  RH  098%=      5-min Rain = 0
KSC1 221034Z 11005KT 16/15 A2994 RMK A01 T01580153  RH  097%=      5-min Rain = 0
KSC1 221035Z 11006KT 16/15 A2993 RMK A01 T01590153  RH  096%=      5-min Rain = 0
KSC1 221036Z 12006KT 16/15 A2994 RMK A01 T01610153  RH  095%=      5-min Rain = 0
KSC1 221037Z 12006KT 16/15 A2994 RMK A01 T01620153  RH  094%=      5-min Rain = 0
KSC1 221038Z 12006KT 16/15 A2994 RMK A01 T01630153  RH  093%=      5-min Rain = 0
KSC1 221039Z 11006KT 16/15 A2994 RMK A01 T01640152  RH  093%=      5-min Rain = 0
KSC1 221040Z 11005KT 17/15 A2994 RMK A01 T01650152  RH  092%=      5-min Rain = 0
KSC1 221041Z 11005KT 17/15 A2994 RMK A01 T01650151  RH  092%=      5-min Rain = 0
KSC1 221042Z 10007KT 17/15 A2994 RMK A01 T01650151  RH  092%=      5-min Rain = 0
KSC1 221043Z 11006KT 17/15 A2994 RMK A01 T01650151  RH  091%=      5-min Rain = 0
KSC1 221044Z 11005KT 17/15 A2994 RMK A01 T01660151  RH  091%=      5-min Rain = 0
KSC1 221045Z 11004KT 17/15 A2994 RMK A01 T01660151  RH  091%=      5-min Rain = 0
KSC1 221046Z 11004KT 17/15 A2993 RMK A01 T01660151  RH  091%=      5-min Rain = 0
KSC1 221047Z 11005KT 17/15 A2993 RMK A01 T01660151  RH  091%=      5-min Rain = 0
KSC1 221048Z 11005KT 17/15 A2993 RMK A01 T01660150  RH  091%=      5-min Rain = 0
KSC1 221049Z 11005KT 17/15 A2993 RMK A01 T01660151  RH  091%=      5-min Rain = 0
KSC1 221050Z 10005KT 17/15 A2993 RMK A01 T01660151  RH  091%=      5-min Rain = 0
KSC1 221051Z 11005KT 17/15 A2993 RMK A01 T01660150  RH  091%=      5-min Rain = 0
KSC1 221052Z 11005KT 17/15 A2993 RMK A01 T01660151  RH  091%=      5-min Rain = 0
KSC1 221053Z 11006KT 17/15 A2993 RMK A01 T01650150  RH  091%=      5-min Rain = 0
KSC1 221054Z 12006KT 17/15 A2993 RMK A01 T01650150  RH  091%=      5-min Rain = 0
KSC1 221055Z 11005KT 17/15 A2993 RMK A01 T01660150  RH  090%=      5-min Rain = 0
KSC1 221056Z 11005KT 17/15 A2993 RMK A01 T01660150  RH  090%=      5-min Rain = 0
KSC1 221057Z 12004KT 17/15 A2993 RMK A01 T01660150  RH  090%=      5-min Rain = 0
KSC1 221058Z 12005KT 17/15 A2993 RMK A01 T01660150  RH  090%=      5-min Rain = 0
KSC1 221059Z 10005KT 17/15 A2993 RMK A01 T01660150  RH  090%=      5-min Rain = 0
KSC1 221100Z 10005KT 17/15 A2993 RMK A01 T01650150  RH  091%=      5-min Rain = 0
KSC1 221101Z 10005KT 17/15 A2993 RMK A01 T01650150  RH  091%=      5-min Rain = 0
KSC1 221102Z 09005KT 17/15 A2993 RMK A01 T01650150  RH  091%=      5-min Rain = 0
KSC1 221103Z 09005KT 17/15 A2993 RMK A01 T01650150  RH  091%=      5-min Rain = 0
KSC1 221104Z 10005KT 17/15 A2993 RMK A01 T01650150  RH  091%=      5-min Rain = 0
KSC1 221105Z 10005KT 17/15 A2993 RMK A01 T01650150  RH  091%=      5-min Rain = 0
KSC1 221106Z 09004KT 17/15 A2993 RMK A01 T01650150  RH  090%=      5-min Rain = 0
KSC1 221107Z 10005KT 17/15 A2993 RMK A01 T01650150  RH  091%=      5-min Rain = 0
KSC1 221108Z 10005KT 16/15 A2993 RMK A01 T01640150  RH  091%=      5-min Rain = 0
KSC1 221109Z 08004KT 16/15 A2994 RMK A01 T01640150  RH  091%=      5-min Rain = 0
KSC1 221110Z 10004KT 16/15 A2993 RMK A01 T01640150  RH  091%=      5-min Rain = 0
KSC1 221111Z 09004KT 16/15 A2993 RMK A01 T01640150  RH  091%=      5-min Rain = 0
KSC1 221112Z 09003KT 16/15 A2993 RMK A01 T01640150  RH  092%=      5-min Rain = 0
KSC1 221113Z 09004KT 16/15 A2993 RMK A01 T01640149  RH  091%=      5-min Rain = 0
KSC1 221114Z 08003KT 16/15 A2993 RMK A01 T01630150  RH  092%=      5-min Rain = 0
KSC1 221115Z 09004KT 16/15 A2993 RMK A01 T01630150  RH  092%=      5-min Rain = 0
KSC1 221116Z 08004KT 16/15 A2993 RMK A01 T01630149  RH  091%=      5-min Rain = 0
KSC1 221117Z 08004KT 16/15 A2993 RMK A01 T01630149  RH  091%=      5-min Rain = 0
KSC1 221118Z 09003KT 16/15 A2994 RMK A01 T01630149  RH  092%=      5-min Rain = 0
KSC1 221119Z 08004KT 16/15 A2994 RMK A01 T01630149  RH  092%=      5-min Rain = 0
KSC1 221120Z 09004KT 16/15 A2994 RMK A01 T01630149  RH  092%=      5-min Rain = 0
KSC1 221121Z 09003KT 16/15 A2994 RMK A01 T01630149  RH  091%=      5-min Rain = 0
KSC1 221122Z 09003KT 16/15 A2994 RMK A01 T01630149  RH  091%=      5-min Rain = 0
KSC1 221123Z 07002KT 16/15 A2994 RMK A01 T01630148  RH  091%=      5-min Rain = 0
KSC1 221124Z 07002KT 16/15 A2994 RMK A01 T01630148  RH  091%=      5-min Rain = 0
KSC1 221125Z 03003KT 16/15 A2994 RMK A01 T01620147  RH  091%=      5-min Rain = 0
KSC1 221126Z 03003KT 16/15 A2994 RMK A01 T01600147  RH  092%=      5-min Rain = 0
KSC1 221127Z 03003KT 16/15 A2994 RMK A01 T01580146  RH  093%=      5-min Rain = 0
KSC1 221128Z 03004KT 16/15 A2994 RMK A01 T01560146  RH  094%=      5-min Rain = 0
KSC1 221129Z 03003KT 16/15 A2994 RMK A01 T01550147  RH  095%=      5-min Rain = 0
KSC1 221130Z 03003KT 15/15 A2994 RMK A01 T01540148  RH  096%=      5-min Rain = 0
KSC1 221131Z 03002KT 15/15 A2994 RMK A01 T01530148  RH  097%=      5-min Rain = 0
KSC1 221132Z 02003KT 15/15 A2994 RMK A01 T01520147  RH  097%=      5-min Rain = 0
KSC1 221133Z 04003KT 15/15 A2994 RMK A01 T01520147  RH  097%=      5-min Rain = 0
KSC1 221134Z 05001KT 15/15 A2994 RMK A01 T01510148  RH  098%=      5-min Rain = 0
KSC1 221135Z 05002KT 15/15 A2994 RMK A01 T01510148  RH  098%=      5-min Rain = 0
KSC1 221136Z 03002KT 15/15 A2994 RMK A01 T01500148  RH  098%=      5-min Rain = 0
KSC1 221137Z 04003KT 15/15 A2994 RMK A01 T01500148  RH  099%=      5-min Rain = 0
KSC1 221138Z 06003KT 15/15 A2994 RMK A01 T01500148  RH  099%=      5-min Rain = 0
KSC1 221139Z 05004KT 15/15 A2994 RMK A01 T01490148  RH  099%=      5-min Rain = 0
KSC1 221140Z 05004KT 15/15 A2994 RMK A01 T01490149  RH  100%=      5-min Rain = 0
KSC1 221141Z 05005KT 15/15 A2994 RMK A01 T01490149  RH  100%=      5-min Rain = 0
KSC1 221142Z 06004KT 15/15 A2994 RMK A01 T01490149  RH  100%=      5-min Rain = 0
KSC1 221143Z 05004KT 15/15 A2994 RMK A01 T01500150  RH  100%=      5-min Rain = 0
KSC1 221144Z 05005KT 15/15 A2994 RMK A01 T01520151  RH  100%=      5-min Rain = 0
KSC1 221145Z 04004KT 15/15 A2994 RMK A01 T01520151  RH  100%=      5-min Rain = 0
KSC1 221146Z 04005KT 15/15 A2995 RMK A01 T01520152  RH  100%=      5-min Rain = 0
KSC1 221147Z 05004KT 15/15 A2995 RMK A01 T01520151  RH  099%=      5-min Rain = 0
KSC1 221148Z 05004KT 15/15 A2995 RMK A01 T01520150  RH  099%=      5-min Rain = 0
KSC1 221149Z 05005KT 15/15 A2995 RMK A01 T01510149  RH  099%=      5-min Rain = 0
KSC1 221150Z 06004KT 15/15 A2995 RMK A01 T01510150  RH  099%=      5-min Rain = 0
KSC1 221151Z 05004KT 15/15 A2995 RMK A01 T01520151  RH  100%=      5-min Rain = 0
KSC1 221152Z 07003KT 15/15 A2995 RMK A01 T01510151  RH  099%=      5-min Rain = 0
KSC1 221153Z 09003KT 15/15 A2995 RMK A01 T01520151  RH  099%=      5-min Rain = 0
KSC1 221154Z 10003KT 15/15 A2995 RMK A01 T01520151  RH  099%=      5-min Rain = 0
KSC1 221155Z 12003KT 15/15 A2995 RMK A01 T01540152  RH  099%=      5-min Rain = 0
KSC1 221156Z 10003KT 15/15 A2995 RMK A01 T01540151  RH  098%=      5-min Rain = 0
KSC1 221157Z 11004KT 16/15 A2995 RMK A01 T01550150  RH  097%=      5-min Rain = 0
KSC1 221158Z 11004KT 16/15 A2995 RMK A01 T01550150  RH  097%=      5-min Rain = 0
KSC1 221159Z 13005KT 16/15 A2995 RMK A01 T01560150  RH  096%=      5-min Rain = 0
KSC1 221200Z 10004KT 16/15 A2995 RMK A01 T01560151  RH  097%=      5-min Rain = 0
KSC1 221201Z 12004KT 16/15 A2995 RMK A01 T01570150  RH  095%=      5-min Rain = 0
KSC1 221202Z 11004KT 16/15 A2995 RMK A01 T01570150  RH  095%=      5-min Rain = 0
KSC1 221203Z 11002KT 16/15 A2995 RMK A01 T01580150  RH  095%=      5-min Rain = 0
KSC1 221204Z 11005KT 16/15 A2995 RMK A01 T01580149  RH  095%=      5-min Rain = 0
KSC1 221205Z 09003KT 16/15 A2995 RMK A01 T01580149  RH  095%=      5-min Rain = 0
KSC1 221206Z 08004KT 16/15 A2995 RMK A01 T01580149  RH  095%=      5-min Rain = 0
KSC1 221207Z 09004KT 16/15 A2995 RMK A01 T01590149  RH  094%=      5-min Rain = 0
KSC1 221208Z 09003KT 16/15 A2995 RMK A01 T01590149  RH  094%=      5-min Rain = 0
KSC1 221209Z 10004KT 16/15 A2995 RMK A01 T01590149  RH  094%=      5-min Rain = 0
KSC1 221210Z 08004KT 16/15 A2995 RMK A01 T01600149  RH  093%=      5-min Rain = 0
KSC1 221211Z 10004KT 16/15 A2995 RMK A01 T01600149  RH  093%=      5-min Rain = 0
KSC1 221212Z 07003KT 16/15 A2995 RMK A01 T01610149  RH  093%=      5-min Rain = 0
KSC1 221213Z 08003KT 16/15 A2995 RMK A01 T01610149  RH  093%=      5-min Rain = 0
KSC1 221214Z 08003KT 16/15 A2995 RMK A01 T01600148  RH  092%=      5-min Rain = 0
KSC1 221215Z 09003KT 16/15 A2995 RMK A01 T01600148  RH  093%=      5-min Rain = 0
KSC1 221216Z 09003KT 16/15 A2995 RMK A01 T01590148  RH  093%=      5-min Rain = 0
KSC1 221217Z 09003KT 16/15 A2995 RMK A01 T01590148  RH  093%=      5-min Rain = 0
KSC1 221218Z 08003KT 16/15 A2995 RMK A01 T01590148  RH  093%=      5-min Rain = 0
KSC1 221219Z 09003KT 16/15 A2995 RMK A01 T01590148  RH  093%=      5-min Rain = 0
KSC1 221220Z 09002KT 16/15 A2995 RMK A01 T01590149  RH  094%=      5-min Rain = 0
KSC1 221221Z 08003KT 16/15 A2996 RMK A01 T01590148  RH  093%=      5-min Rain = 0
KSC1 221222Z 07003KT 16/15 A2996 RMK A01 T01590149  RH  094%=      5-min Rain = 0
KSC1 221223Z 06002KT 16/15 A2996 RMK A01 T01590148  RH  093%=      5-min Rain = 0
KSC1 221224Z 06003KT 16/15 A2996 RMK A01 T01580147  RH  093%=      5-min Rain = 0
KSC1 221225Z 07003KT 16/15 A2996 RMK A01 T01580148  RH  094%=      5-min Rain = 0
KSC1 221226Z 07003KT 16/15 A2996 RMK A01 T01580148  RH  094%=      5-min Rain = 0
KSC1 221227Z 08002KT 16/15 A2996 RMK A01 T01580148  RH  094%=      5-min Rain = 0
KSC1 221228Z 06002KT 16/15 A2996 RMK A01 T01580149  RH  094%=      5-min Rain = 0
KSC1 221229Z 07001KT 16/15 A2996 RMK A01 T01570148  RH  094%=      5-min Rain = 0
KSC1 221230Z 07000KT 16/15 A2996 RMK A01 T01570148  RH  094%=      5-min Rain = 0
KSC1 221231Z 08001KT 16/15 A2996 RMK A01 T01570148  RH  094%=      5-min Rain = 0
KSC1 221232Z 07002KT 16/15 A2996 RMK A01 T01560148  RH  095%=      5-min Rain = 0
KSC1 221233Z 06002KT 16/15 A2996 RMK A01 T01570149  RH  095%=      5-min Rain = 0
KSC1 221234Z 08002KT 16/15 A2996 RMK A01 T01570149  RH  095%=      5-min Rain = 0
KSC1 221235Z 06001KT 16/15 A2996 RMK A01 T01570149  RH  095%=      5-min Rain = 0
KSC1 221236Z 09003KT 16/15 A2996 RMK A01 T01580149  RH  094%=      5-min Rain = 0
KSC1 221237Z 08003KT 16/15 A2996 RMK A01 T01590149  RH  094%=      5-min Rain = 0
KSC1 221238Z 09002KT 16/15 A2996 RMK A01 T01590149  RH  094%=      5-min Rain = 0
KSC1 221239Z 05003KT 16/15 A2996 RMK A01 T01590149  RH  094%=      5-min Rain = 0
KSC1 221240Z 09004KT 16/15 A2996 RMK A01 T01600149  RH  093%=      5-min Rain = 0
KSC1 221241Z 09003KT 16/15 A2996 RMK A01 T01610149  RH  093%=      5-min Rain = 0
KSC1 221242Z 10002KT 16/15 A2996 RMK A01 T01610149  RH  093%=      5-min Rain = 0
KSC1 221243Z 10004KT 16/15 A2996 RMK A01 T01610149  RH  092%=      5-min Rain = 0
KSC1 221244Z 10004KT 16/15 A2996 RMK A01 T01620149  RH  092%=      5-min Rain = 0
KSC1 221245Z 11004KT 16/15 A2996 RMK A01 T01620149  RH  092%=      5-min Rain = 0
KSC1 221246Z 10005KT 16/15 A2996 RMK A01 T01620149  RH  092%=      5-min Rain = 0
KSC1 221247Z 11004KT 16/15 A2996 RMK A01 T01620149  RH  092%=      5-min Rain = 0
KSC1 221248Z 11005KT 16/15 A2996 RMK A01 T01620149  RH  092%=      5-min Rain = 0
KSC1 221249Z 11004KT 16/15 A2996 RMK A01 T01620150  RH  092%=      5-min Rain = 0
KSC1 221250Z 12003KT 16/15 A2996 RMK A01 T01620150  RH  093%=      5-min Rain = 0
KSC1 221251Z 11004KT 16/15 A2996 RMK A01 T01620150  RH  093%=      5-min Rain = 0
KSC1 221252Z 11005KT 16/15 A2996 RMK A01 T01620150  RH  093%=      5-min Rain = 0
KSC1 221253Z 11005KT 16/15 A2996 RMK A01 T01620150  RH  093%=      5-min Rain = 0
KSC1 221254Z 11004KT 16/15 A2996 RMK A01 T01610150  RH  093%=      5-min Rain = 0
KSC1 221255Z 13005KT 16/15 A2996 RMK A01 T01620150  RH  093%=      5-min Rain = 0
KSC1 221256Z 09004KT 16/15 A2996 RMK A01 T01620150  RH  092%=      5-min Rain = 0
KSC1 221257Z 10003KT 16/15 A2996 RMK A01 T01620150  RH  092%=      5-min Rain = 0
KSC1 221258Z 10004KT 16/15 A2996 RMK A01 T01620150  RH  092%=      5-min Rain = 0
KSC1 221259Z 11004KT 16/15 A2996 RMK A01 T01630150  RH  092%=      5-min Rain = 0
KSC1 221300Z 12003KT 16/15 A2996 RMK A01 T01630150  RH  092%=      5-min Rain = 0
KSC1 221301Z 12004KT 16/15 A2996 RMK A01 T01630150  RH  092%=      5-min Rain = 0
KSC1 221302Z 11003KT 16/15 A2997 RMK A01 T01630150  RH  092%=      5-min Rain = 0
KSC1 221303Z 11003KT 16/15 A2997 RMK A01 T01640150  RH  092%=      5-min Rain = 0
KSC1 221304Z 09002KT 16/15 A2997 RMK A01 T01630150  RH  092%=      5-min Rain = 0
KSC1 221305Z 08002KT 16/15 A2997 RMK A01 T01630150  RH  092%=      5-min Rain = 0
KSC1 221306Z 12004KT 16/15 A2997 RMK A01 T01640150  RH  092%=      5-min Rain = 0
KSC1 221307Z 11004KT 16/15 A2997 RMK A01 T01640150  RH  092%=      5-min Rain = 0
KSC1 221308Z 11004KT 16/15 A2997 RMK A01 T01640150  RH  092%=      5-min Rain = 0
KSC1 221309Z 12006KT 16/15 A2997 RMK A01 T01640151  RH  091%=      5-min Rain = 0
KSC1 221310Z 10005KT 17/15 A2997 RMK A01 T01650150  RH  091%=      5-min Rain = 0
KSC1 221311Z 11005KT 17/15 A2997 RMK A01 T01650150  RH  091%=      5-min Rain = 0
KSC1 221312Z 11005KT 17/15 A2997 RMK A01 T01660151  RH  091%=      5-min Rain = 0
KSC1 221313Z 10005KT 17/15 A2997 RMK A01 T01650151  RH  091%=      5-min Rain = 0
KSC1 221314Z 09004KT 17/15 A2997 RMK A01 T01650151  RH  091%=      5-min Rain = 0
KSC1 221315Z 09004KT 17/15 A2997 RMK A01 T01660152  RH  091%=      5-min Rain = 0
KSC1 221316Z 10004KT 17/15 A2997 RMK A01 T01660151  RH  091%=      5-min Rain = 0
KSC1 221317Z 09003KT 17/15 A2997 RMK A01 T01660152  RH  091%=      5-min Rain = 0
KSC1 221318Z 10005KT 17/15 A2997 RMK A01 T01660151  RH  091%=      5-min Rain = 0
KSC1 221319Z 11004KT 17/15 A2997 RMK A01 T01660151  RH  091%=      5-min Rain = 0
KSC1 221320Z 10003KT 17/15 A2997 RMK A01 T01660152  RH  091%=      5-min Rain = 0
KSC1 221321Z 11002KT 17/15 A2997 RMK A01 T01670152  RH  091%=      5-min Rain = 0
KSC1 221322Z 10003KT 17/15 A2997 RMK A01 T01670153  RH  092%=      5-min Rain = 0
KSC1 221323Z 08003KT 17/15 A2997 RMK A01 T01670152  RH  091%=      5-min Rain = 0
KSC1 221324Z 09004KT 17/15 A2997 RMK A01 T01670152  RH  091%=      5-min Rain = 0
KSC1 221325Z 10005KT 17/15 A2997 RMK A01 T01670152  RH  091%=      5-min Rain = 0
KSC1 221326Z 11007KT 17/15 A2997 RMK A01 T01670152  RH  091%=      5-min Rain = 0
KSC1 221327Z 11007KT 17/15 A2997 RMK A01 T01670151  RH  090%=      5-min Rain = 0
KSC1 221328Z 11006KT 17/15 A2997 RMK A01 T01680151  RH  090%=      5-min Rain = 0
KSC1 221329Z 11005KT 17/15 A2997 RMK A01 T01680151  RH  090%=      5-min Rain = 0
KSC1 221330Z 11005KT 17/15 A2997 RMK A01 T01670151  RH  090%=      5-min Rain = 0
KSC1 221331Z 11004KT 17/15 A2997 RMK A01 T01680152  RH  090%=      5-min Rain = 0
KSC1 221332Z 11006KT 17/15 A2997 RMK A01 T01680152  RH  090%=      5-min Rain = 0
KSC1 221333Z 12005KT 17/15 A2997 RMK A01 T01680152  RH  090%=      5-min Rain = 0
KSC1 221334Z 12005KT 17/15 A2997 RMK A01 T01680152  RH  090%=      5-min Rain = 0
KSC1 221335Z 12005KT 17/15 A2997 RMK A01 T01680152  RH  090%=      5-min Rain = 0
KSC1 221336Z 12005KT 17/15 A2997 RMK A01 T01690152  RH  090%=      5-min Rain = 0
KSC1 221337Z 12007KT 17/15 A2998 RMK A01 T01690152  RH  090%=      5-min Rain = 0
KSC1 221338Z 12007KT 17/15 A2998 RMK A01 T01690152  RH  090%=      5-min Rain = 0
KSC1 221339Z 13006KT 17/15 A2998 RMK A01 T01690151  RH  089%=      5-min Rain = 0
KSC1 221340Z 14006KT 17/15 A2998 RMK A01 T01700152  RH  089%=      5-min Rain = 0
KSC1 221341Z 14005KT 17/15 A2998 RMK A01 T01700152  RH  089%=      5-min Rain = 0
KSC1 221342Z 14006KT 17/15 A2998 RMK A01 T01700151  RH  089%=      5-min Rain = 0
KSC1 221343Z 12007KT 17/15 A2998 RMK A01 T01700151  RH  088%=      5-min Rain = 0
KSC1 221344Z 13005KT 17/15 A2998 RMK A01 T01700151  RH  088%=      5-min Rain = 0
KSC1 221345Z 12007KT 17/15 A2998 RMK A01 T01700151  RH  088%=      5-min Rain = 0
KSC1 221346Z 12006KT 17/15 A2998 RMK A01 T01710151  RH  088%=      5-min Rain = 0
KSC1 221347Z 14007KT 17/15 A2998 RMK A01 T01710151  RH  088%=      5-min Rain = 0
KSC1 221348Z 13007KT 17/15 A2998 RMK A01 T01710151  RH  088%=      5-min Rain = 0
KSC1 221349Z 13006KT 17/15 A2998 RMK A01 T01710151  RH  088%=      5-min Rain = 0
KSC1 221350Z 13005KT 17/15 A2998 RMK A01 T01710151  RH  088%=      5-min Rain = 0
KSC1 221351Z 12005KT 17/15 A2998 RMK A01 T01710151  RH  088%=      5-min Rain = 0
KSC1 221352Z 13006KT 17/15 A2998 RMK A01 T01720152  RH  088%=      5-min Rain = 0
KSC1 221353Z 13007KT 17/15 A2998 RMK A01 T01720151  RH  088%=      5-min Rain = 0
KSC1 221354Z 13005KT 17/15 A2998 RMK A01 T01720151  RH  087%=      5-min Rain = 0
KSC1 221355Z 12004KT 17/15 A2998 RMK A01 T01730151  RH  087%=      5-min Rain = 0
KSC1 221356Z 12006KT 17/15 A2998 RMK A01 T01730151  RH  087%=      5-min Rain = 0
KSC1 221357Z 12007KT 17/15 A2998 RMK A01 T01730152  RH  087%=      5-min Rain = 0
KSC1 221358Z 14005KT 17/15 A2998 RMK A01 T01730151  RH  087%=      5-min Rain = 0
KSC1 221359Z 14006KT 17/15 A2998 RMK A01 T01740151  RH  087%=      5-min Rain = 0
KSC1 221400Z 14006KT 17/15 A2998 RMK A01 T01740151  RH  086%=      5-min Rain = 0
KSC1 221401Z 15005KT 17/15 A2998 RMK A01 T01740151  RH  086%=      5-min Rain = 0
KSC1 221402Z 13008KT 17/15 A2998 RMK A01 T01740150  RH  086%=      5-min Rain = 0
KSC1 221403Z 13006KT 17/15 A2998 RMK A01 T01740151  RH  086%=      5-min Rain = 0
KSC1 221404Z 14005KT 17/15 A2998 RMK A01 T01740150  RH  086%=      5-min Rain = 0
KSC1 221405Z 13006KT 18/15 A2998 RMK A01 T01750151  RH  086%=      5-min Rain = 0
KSC1 221406Z 14007KT 18/15 A2998 RMK A01 T01750151  RH  086%=      5-min Rain = 0
KSC1 221407Z 15009KT 18/15 A2998 RMK A01 T01750150  RH  086%=      5-min Rain = 0
KSC1 221408Z 14010KT 18/15 A2998 RMK A01 T01750150  RH  085%=      5-min Rain = 0
KSC1 221409Z 14005KT 18/15 A2998 RMK A01 T01750150  RH  085%=      5-min Rain = 0
KSC1 221410Z 13005KT 18/15 A2998 RMK A01 T01750151  RH  086%=      5-min Rain = 0
KSC1 221411Z 16007KT 18/15 A2998 RMK A01 T01760151  RH  086%=      5-min Rain = 0
KSC1 221412Z 14005KT 18/15 A2998 RMK A01 T01760151  RH  085%=      5-min Rain = 0
KSC1 221413Z 16005KT 18/15 A2998 RMK A01 T01760151  RH  085%=      5-min Rain = 0
KSC1 221414Z 15005KT 18/15 A2998 RMK A01 T01760151  RH  085%=      5-min Rain = 0
KSC1 221415Z 13004KT 18/15 A2998 RMK A01 T01760152  RH  086%=      5-min Rain = 0
KSC1 221416Z 12005KT 18/15 A2998 RMK A01 T01770153  RH  086%=      5-min Rain = 0
KSC1 221417Z 12009KT 18/15 A2998 RMK A01 T01770152  RH  085%=      5-min Rain = 0
KSC1 221418Z 12008KT 18/15 A2998 RMK A01 T01770151  RH  085%=      5-min Rain = 0
KSC1 221419Z 14005KT 18/15 A2998 RMK A01 T01760152  RH  085%=      5-min Rain = 0
KSC1 221420Z 14005KT 18/15 A2998 RMK A01 T01770152  RH  085%=      5-min Rain = 0
KSC1 221421Z 13007KT 18/15 A2998 RMK A01 T01760151  RH  085%=      5-min Rain = 0
KSC1 221422Z 12007KT 18/15 A2998 RMK A01 T01760151  RH  085%=      5-min Rain = 0
KSC1 221423Z 13008KT 18/15 A2998 RMK A01 T01760151  RH  085%=      5-min Rain = 0
KSC1 221424Z 14006KT 18/15 A2998 RMK A01 T01770151  RH  085%=      5-min Rain = 0
KSC1 221425Z 16006KT 18/15 A2998 RMK A01 T01760151  RH  085%=      5-min Rain = 0
KSC1 221426Z 16010KT 18/15 A2998 RMK A01 T01760151  RH  085%=      5-min Rain = 0
KSC1 221427Z 16007KT 18/15 A2998 RMK A01 T01760150  RH  085%=      5-min Rain = 0
KSC1 221428Z 14006KT 18/15 A2998 RMK A01 T01760150  RH  085%=      5-min Rain = 0
KSC1 221429Z 15011KT 18/15 A2998 RMK A01 T01760150  RH  085%=      5-min Rain = 0
KSC1 221430Z 14007KT 18/15 A2999 RMK A01 T01760150  RH  085%=      5-min Rain = 0
KSC1 221431Z 15008KT 18/15 A2999 RMK A01 T01760150  RH  085%=      5-min Rain = 0
KSC1 221432Z 14006KT 18/15 A2999 RMK A01 T01760150  RH  085%=      5-min Rain = 0
KSC1 221433Z 16006KT 18/15 A2999 RMK A01 T01760150  RH  085%=      5-min Rain = 0
KSC1 221434Z 15004KT 18/15 A2999 RMK A01 T01760151  RH  085%=      5-min Rain = 0
KSC1 221435Z 16006KT 18/15 A2999 RMK A01 T01760151  RH  085%=      5-min Rain = 0
KSC1 221436Z 15008KT 18/15 A2999 RMK A01 T01760151  RH  085%=      5-min Rain = 0
KSC1 221437Z 17009KT 18/15 A2999 RMK A01 T01760150  RH  084%=      5-min Rain = 0
KSC1 221438Z 18006KT 18/15 A2999 RMK A01 T01760150  RH  084%=      5-min Rain = 0
KSC1 221439Z 16006KT 18/15 A2999 RMK A01 T01760150  RH  085%=      5-min Rain = 0
KSC1 221440Z 15009KT 18/15 A2999 RMK A01 T01760150  RH  085%=      5-min Rain = 0
KSC1 221441Z 15007KT 18/15 A2999 RMK A01 T01770150  RH  084%=      5-min Rain = 0
KSC1 221442Z 16009KT 18/15 A2999 RMK A01 T01770150  RH  084%=      5-min Rain = 0
KSC1 221443Z 14007KT 18/15 A2999 RMK A01 T01770150  RH  084%=      5-min Rain = 0
KSC1 221444Z 15008KT 18/15 A2999 RMK A01 T01770150  RH  084%=      5-min Rain = 0
KSC1 221445Z 16009KT 18/15 A2999 RMK A01 T01770150  RH  084%=      5-min Rain = 0
KSC1 221446Z 15007KT 18/15 A2999 RMK A01 T01770150  RH  084%=      5-min Rain = 0
KSC1 221447Z 13004KT 18/15 A2999 RMK A01 T01770150  RH  084%=      5-min Rain = 0
KSC1 221448Z 14006G11KT 18/15 A2999 RMK A01 T01770150  RH  084%=      5-min Rain = 0
KSC1 221449Z 14008KT 18/15 A2999 RMK A01 T01780150  RH  084%=      5-min Rain = 0
KSC1 221450Z 15006KT 18/15 A2999 RMK A01 T01780150  RH  084%=      5-min Rain = 0
KSC1 221451Z 14007KT 18/15 A2999 RMK A01 T01780150  RH  084%=      5-min Rain = 0
KSC1 221452Z 13005KT 18/15 A2999 RMK A01 T01780151  RH  084%=      5-min Rain = 0
KSC1 221453Z 14007KT 18/15 A2999 RMK A01 T01780151  RH  084%=      5-min Rain = 0
KSC1 221454Z 14005KT 18/15 A2999 RMK A01 T01790151  RH  084%=      5-min Rain = 0
KSC1 221455Z 13007KT 18/15 A2999 RMK A01 T01790150  RH  083%=      5-min Rain = 0
KSC1 221456Z 13006KT 18/15 A2999 RMK A01 T01790151  RH  084%=      5-min Rain = 0
KSC1 221457Z 14008KT 18/15 A2999 RMK A01 T01790151  RH  084%=      5-min Rain = 0
KSC1 221458Z 13008KT 18/15 A2999 RMK A01 T01790151  RH  084%=      5-min Rain = 0
KSC1 221459Z 15008KT 18/15 A2999 RMK A01 T01790150  RH  084%=      5-min Rain = 0
KSC1 221500Z 15006KT 18/15 A2999 RMK A01 T01790150  RH  083%=      5-min Rain = 0
KSC1 221501Z 17005KT 18/15 A2999 RMK A01 T01790150  RH  084%=      5-min Rain = 0
KSC1 221502Z 17008KT 18/15 A30 RMK A01 T01790151  RH  084%=      5-min Rain = 0
KSC1 221503Z 17009KT 18/15 A30 RMK A01 T01790150  RH  083%=      5-min Rain = 0
KSC1 221504Z 17009KT 18/15 A30 RMK A01 T01790151  RH  083%=      5-min Rain = 0
KSC1 221505Z 16008KT 18/15 A30 RMK A01 T01790150  RH  083%=      5-min Rain = 0
KSC1 221506Z 17007KT 18/15 A2999 RMK A01 T01790150  RH  083%=      5-min Rain = 0
KSC1 221507Z 15006KT 18/15 A2999 RMK A01 T01790150  RH  083%=      5-min Rain = 0
KSC1 221508Z 15006KT 18/15 A2999 RMK A01 T01790151  RH  084%=      5-min Rain = 0
KSC1 221509Z 15005KT 18/15 A2999 RMK A01 T01800152  RH  084%=      5-min Rain = 0
KSC1 221510Z 16007KT 18/15 A2999 RMK A01 T01810153  RH  084%=      5-min Rain = 0
KSC1 221511Z 15009KT 18/15 A2999 RMK A01 T01810151  RH  083%=      5-min Rain = 0
KSC1 221512Z 15009KT 18/15 A2999 RMK A01 T01810151  RH  082%=      5-min Rain = 0
KSC1 221513Z 16008KT 18/15 A2999 RMK A01 T01810151  RH  082%=      5-min Rain = 0
KSC1 221514Z 16008KT 18/15 A2999 RMK A01 T01810151  RH  082%=      5-min Rain = 0
KSC1 221515Z 15008KT 18/15 A2999 RMK A01 T01810150  RH  082%=      5-min Rain = 0
KSC1 221516Z 16008KT 18/15 A2999 RMK A01 T01810150  RH  082%=      5-min Rain = 0
KSC1 221517Z 16009KT 18/15 A2999 RMK A01 T01810150  RH  082%=      5-min Rain = 0
KSC1 221518Z 15006KT 18/15 A2999 RMK A01 T01810150  RH  083%=      5-min Rain = 0
KSC1 221519Z 14003KT 18/15 A2999 RMK A01 T01810152  RH  083%=      5-min Rain = 0
KSC1 221520Z 14005KT 18/15 A2999 RMK A01 T01820152  RH  083%=      5-min Rain = 0
KSC1 221521Z 15007KT 18/15 A2999 RMK A01 T01820152  RH  083%=      5-min Rain = 0
KSC1 221522Z 13006KT 18/15 A2999 RMK A01 T01830152  RH  082%=      5-min Rain = 0
KSC1 221523Z 13007KT 18/15 A2999 RMK A01 T01830152  RH  082%=      5-min Rain = 0
KSC1 221524Z 13007KT 18/15 A2999 RMK A01 T01840152  RH  082%=      5-min Rain = 0
KSC1 221525Z 14005KT 18/15 A2999 RMK A01 T01840152  RH  082%=      5-min Rain = 0
KSC1 221526Z 14006KT 18/15 A2999 RMK A01 T01840152  RH  082%=      5-min Rain = 0
KSC1 221527Z 13006KT 18/15 A2999 RMK A01 T01840151  RH  081%=      5-min Rain = 0
KSC1 221528Z 14007KT 18/15 A2999 RMK A01 T01840152  RH  081%=      5-min Rain = 0
KSC1 221529Z 14009KT 18/15 A2999 RMK A01 T01840151  RH  081%=      5-min Rain = 0
KSC1 221530Z 14007KT 18/15 A2999 RMK A01 T01840151  RH  081%=      5-min Rain = 0
KSC1 221531Z 14005KT 18/15 A2999 RMK A01 T01840152  RH  081%=      5-min Rain = 0
KSC1 221532Z 13006KT 18/15 A2999 RMK A01 T01840152  RH  082%=      5-min Rain = 0
KSC1 221533Z 14008KT 19/15 A2999 RMK A01 T01850152  RH  081%=      5-min Rain = 0
KSC1 221534Z 15005KT 19/15 A2999 RMK A01 T01850152  RH  081%=      5-min Rain = 0
KSC1 221535Z 14006KT 19/15 A2999 RMK A01 T01850153  RH  082%=      5-min Rain = 0
KSC1 221536Z 15007KT 19/15 A2998 RMK A01 T01860152  RH  081%=      5-min Rain = 0
KSC1 221537Z 14008KT 19/15 A2998 RMK A01 T01860152  RH  081%=      5-min Rain = 0
KSC1 221538Z 14007KT 19/15 A2998 RMK A01 T01860151  RH  080%=      5-min Rain = 0
KSC1 221539Z 14006KT 19/15 A2998 RMK A01 T01860152  RH  081%=      5-min Rain = 0
KSC1 221540Z 13008KT 19/15 A2999 RMK A01 T01860152  RH  081%=      5-min Rain = 0
KSC1 221541Z 13009KT 19/15 A2999 RMK A01 T01860152  RH  080%=      5-min Rain = 0
KSC1 221542Z 14009KT 19/15 A2999 RMK A01 T01860151  RH  080%=      5-min Rain = 0
KSC1 221543Z 14009KT 19/15 A2999 RMK A01 T01860151  RH  080%=      5-min Rain = 0
KSC1 221544Z 14010KT 19/15 A2999 RMK A01 T01860151  RH  080%=      5-min Rain = 0
KSC1 221545Z 14007KT 19/15 A2999 RMK A01 T01860151  RH  080%=      5-min Rain = 0
KSC1 221546Z 15005KT 19/15 A2999 RMK A01 T01860151  RH  080%=      5-min Rain = 0
KSC1 221547Z 15006KT 19/15 A2999 RMK A01 T01860153  RH  081%=      5-min Rain = 0
KSC1 221548Z 14007KT 19/15 A2999 RMK A01 T01870153  RH  080%=      5-min Rain = 0
KSC1 221549Z 14007KT 19/15 A2999 RMK A01 T01870151  RH  079%=      5-min Rain = 0
KSC1 221550Z 14008KT 19/15 A30 RMK A01 T01870151  RH  080%=      5-min Rain = 0
KSC1 221551Z 13008KT 19/15 A30 RMK A01 T01870151  RH  080%=      5-min Rain = 0
KSC1 221552Z 12009KT 19/15 A30 RMK A01 T01870152  RH  080%=      5-min Rain = 0
KSC1 221553Z 13009KT 19/15 A30 RMK A01 T01860151  RH  080%=      5-min Rain = 0
KSC1 221554Z 13007KT 19/15 A30 RMK A01 T01860152  RH  080%=      5-min Rain = 0
KSC1 221555Z 13009KT 19/15 A30 RMK A01 T01870153  RH  080%=      5-min Rain = 0
KSC1 221556Z 12008KT 19/15 A2999 RMK A01 T01870152  RH  080%=      5-min Rain = 0
KSC1 221557Z 12007KT 19/15 A2999 RMK A01 T01870153  RH  081%=      5-min Rain = 0
KSC1 221558Z 13009KT 19/15 A2999 RMK A01 T01880152  RH  080%=      5-min Rain = 0
KSC1 221559Z 13007KT 19/15 A2999 RMK A01 T01880152  RH  079%=      5-min Rain = 0
KSC1 221600Z 14009KT 19/15 A2999 RMK A01 T01890153  RH  080%=      5-min Rain = 0
KSC1 221601Z 15009KT 19/15 A2999 RMK A01 T01890152  RH  079%=      5-min Rain = 0
KSC1 221602Z 15008KT 19/15 A2999 RMK A01 T01890151  RH  079%=      5-min Rain = 0
KSC1 221603Z 15008KT 19/15 A2999 RMK A01 T01890152  RH  079%=      5-min Rain = 0
KSC1 221604Z 15007KT 19/15 A30 RMK A01 T01900152  RH  079%=      5-min Rain = 0
KSC1 221605Z 14008KT 19/15 A30 RMK A01 T01900151  RH  078%=      5-min Rain = 0
KSC1 221606Z 13010KT 19/15 A30 RMK A01 T01900151  RH  078%=      5-min Rain = 0
KSC1 221607Z 13008KT 19/15 A30 RMK A01 T01900152  RH  078%=      5-min Rain = 0
KSC1 221608Z 13008KT 19/15 A30 RMK A01 T01910152  RH  078%=      5-min Rain = 0
KSC1 221609Z 14006KT 19/15 A30 RMK A01 T01910152  RH  078%=      5-min Rain = 0
KSC1 221610Z 14008KT 19/15 A30 RMK A01 T01910153  RH  078%=      5-min Rain = 0
KSC1 221611Z 14010KT 19/15 A30 RMK A01 T01920152  RH  077%=      5-min Rain = 0
KSC1 221612Z 17008KT 19/15 A30 RMK A01 T01920151  RH  077%=      5-min Rain = 0
KSC1 221613Z 16009KT 19/15 A30 RMK A01 T01920151  RH  077%=      5-min Rain = 0
KSC1 221614Z 15008KT 19/15 A30 RMK A01 T01920152  RH  078%=      5-min Rain = 0
KSC1 221615Z 15007KT 19/15 A30 RMK A01 T01910152  RH  078%=      5-min Rain = 0
KSC1 221616Z 15007KT 19/15 A30 RMK A01 T01920152  RH  078%=      5-min Rain = 0
KSC1 221617Z 14005KT 19/15 A30 RMK A01 T01920152  RH  078%=      5-min Rain = 0
KSC1 221618Z 15007KT 19/15 A30 RMK A01 T01920153  RH  078%=      5-min Rain = 0
KSC1 221619Z 15009KT 19/15 A30 RMK A01 T01920152  RH  077%=      5-min Rain = 0
KSC1 221620Z 16009KT 19/15 A30 RMK A01 T01920151  RH  077%=      5-min Rain = 0
KSC1 221621Z 15006KT 19/15 A30 RMK A01 T01920152  RH  077%=      5-min Rain = 0
KSC1 221622Z 15008KT 19/15 A30 RMK A01 T01920152  RH  078%=      5-min Rain = 0
KSC1 221623Z 13007KT 19/15 A30 RMK A01 T01920152  RH  078%=      5-min Rain = 0
KSC1 221624Z 13010KT 19/15 A30 RMK A01 T01920151  RH  077%=      5-min Rain = 0
KSC1 221625Z 14009KT 19/15 A2999 RMK A01 T01920151  RH  077%=      5-min Rain = 0
KSC1 221626Z 14007KT 19/15 A30 RMK A01 T01920151  RH  077%=      5-min Rain = 0
KSC1 221627Z 14008KT 19/15 A30 RMK A01 T01930151  RH  077%=      5-min Rain = 0
KSC1 221628Z 14009KT 19/15 A30 RMK A01 T01930150  RH  076%=      5-min Rain = 0
KSC1 221629Z 14007KT 19/15 A30 RMK A01 T01930151  RH  077%=      5-min Rain = 0
KSC1 221630Z 14009KT 19/15 A30 RMK A01 T01930152  RH  077%=      5-min Rain = 0
KSC1 221631Z 14009KT 19/15 A30 RMK A01 T01930151  RH  077%=      5-min Rain = 0
KSC1 221632Z 14009KT 19/15 A30 RMK A01 T01940151  RH  077%=      5-min Rain = 0
KSC1 221633Z 14008KT 19/15 A30 RMK A01 T01940152  RH  076%=      5-min Rain = 0
KSC1 221634Z 14008KT 19/15 A30 RMK A01 T01940152  RH  076%=      5-min Rain = 0
KSC1 221635Z 14009KT 20/15 A30 RMK A01 T01950152  RH  076%=      5-min Rain = 0
KSC1 221636Z 14007KT 20/15 A30 RMK A01 T01960154  RH  077%=      5-min Rain = 0
KSC1 221637Z 15008KT 20/15 A30 RMK A01 T01970154  RH  076%=      5-min Rain = 0
KSC1 221638Z 14008KT 20/15 A30 RMK A01 T01980153  RH  075%=      5-min Rain = 0
KSC1 221639Z 16007KT 20/15 A30 RMK A01 T01980153  RH  075%=      5-min Rain = 0
KSC1 221640Z 16008KT 20/15 A30 RMK A01 T01990152  RH  074%=      5-min Rain = 0
KSC1 221641Z 15006KT 20/15 A30 RMK A01 T01990153  RH  074%=      5-min Rain = 0
KSC1 221642Z 15005KT 20/16 A30 RMK A01 T02000155  RH  075%=      5-min Rain = 0
KSC1 221643Z 14006KT 20/16 A30 RMK A01 T02020156  RH  075%=      5-min Rain = 0
KSC1 221644Z 14010KT 20/15 A30 RMK A01 T02030154  RH  073%=      5-min Rain = 0
KSC1 221645Z 13010KT 20/15 A30 RMK A01 T02020152  RH  073%=      5-min Rain = 0
KSC1 221646Z 14008KT 20/15 A30 RMK A01 T02000151  RH  073%=      5-min Rain = 0
KSC1 221647Z 13007KT 20/15 A30 RMK A01 T01990152  RH  074%=      5-min Rain = 0
KSC1 221648Z 16009KT 20/15 A30 RMK A01 T01990153  RH  075%=      5-min Rain = 0
KSC1 221649Z 15011KT 20/15 A3001 RMK A01 T02000151  RH  073%=      5-min Rain = 0
KSC1 221650Z 15010KT 20/15 A3001 RMK A01 T01990150  RH  073%=      5-min Rain = 0
KSC1 221651Z 15008KT 20/15 A3001 RMK A01 T01990150  RH  073%=      5-min Rain = 0
KSC1 221652Z 15008KT 20/15 A3001 RMK A01 T01990151  RH  074%=      5-min Rain = 0
KSC1 221653Z 15010KT 20/15 A3001 RMK A01 T01980151  RH  074%=      5-min Rain = 0
KSC1 221654Z 15010KT 20/15 A3001 RMK A01 T01980150  RH  074%=      5-min Rain = 0
KSC1 221655Z 14006KT 20/15 A3001 RMK A01 T01970149  RH  074%=      5-min Rain = 0
KSC1 221656Z 14004KT 20/15 A3001 RMK A01 T01970150  RH  074%=      5-min Rain = 0
KSC1 221657Z 13004KT 20/15 A3001 RMK A01 T01970150  RH  075%=      5-min Rain = 0
KSC1 221658Z 11004KT 20/15 A3002 RMK A01 T01970151  RH  075%=      5-min Rain = 0
KSC1 221659Z 12005KT 20/15 A3002 RMK A01 T01970150  RH  074%=      5-min Rain = 0
KSC1 221700Z 14006KT 20/15 A3002 RMK A01 T01960150  RH  075%=      5-min Rain = 0
KSC1 221701Z 13005KT 20/15 A3002 RMK A01 T01960150  RH  075%=      5-min Rain = 0
KSC1 221702Z 11005KT 20/15 A3002 RMK A01 T01960151  RH  075%=      5-min Rain = 0
KSC1 221703Z 10005KT 20/15 A3002 RMK A01 T01960151  RH  075%=      5-min Rain = 0
KSC1 221704Z 09003KT 20/15 A3002 RMK A01 T01960151  RH  075%=      5-min Rain = 0
KSC1 221705Z 10003KT 20/15 A3002 RMK A01 T01950150  RH  075%=      5-min Rain = 0
KSC1 221706Z 13003KT 20/15 A3002 RMK A01 T01950150  RH  075%=      5-min Rain = 0
KSC1 221707Z 13003KT 20/15 A3002 RMK A01 T01950150  RH  075%=      5-min Rain = 0
KSC1 221708Z 13004KT 20/15 A3002 RMK A01 T01950150  RH  075%=      5-min Rain = 0
KSC1 221709Z 14004KT 20/15 A3002 RMK A01 T01950152  RH  076%=      5-min Rain = 0
KSC1 221710Z 13004KT 20/15 A3002 RMK A01 T01950151  RH  076%=      5-min Rain = 0
KSC1 221711Z 13004KT 20/15 A3003 RMK A01 T01950151  RH  075%=      5-min Rain = 0
KSC1 221712Z 13003KT 20/15 A3003 RMK A01 T01950150  RH  075%=      5-min Rain = 0
KSC1 221713Z 12002KT 20/15 A3003 RMK A01 T01950150  RH  075%=      5-min Rain = 0
KSC1 221714Z 14003KT 20/15 A3003 RMK A01 T01950151  RH  076%=      5-min Rain = 0
KSC1 221715Z 14003KT 20/15 A3003 RMK A01 T01950151  RH  076%=      5-min Rain = 0
KSC1 221716Z 15004KT 20/15 A3003 RMK A01 T01950151  RH  076%=      5-min Rain = 0
KSC1 221717Z 16003KT 20/15 A3003 RMK A01 T01950151  RH  075%=      5-min Rain = 0
KSC1 221718Z 14003KT 20/15 A3003 RMK A01 T01950150  RH  075%=      5-min Rain = 0
KSC1 221719Z 12003KT 20/15 A3002 RMK A01 T01950151  RH  076%=      5-min Rain = 0
KSC1 221720Z 11003KT 20/15 A3002 RMK A01 T01960152  RH  076%=      5-min Rain = 0
KSC1 221721Z 12003KT 20/15 A3002 RMK A01 T01960153  RH  076%=      5-min Rain = 0
KSC1 221722Z 11003KT 20/15 A3002 RMK A01 T01970152  RH  075%=      5-min Rain = 0
KSC1 221723Z 11002KT 20/15 A3002 RMK A01 T01970152  RH  075%=      5-min Rain = 0
KSC1 221724Z 10002KT 20/15 A3002 RMK A01 T01970149  RH  074%=      5-min Rain = 0
KSC1 221725Z 09003KT 20/15 A3002 RMK A01 T01980152  RH  075%=      5-min Rain = 0
KSC1 221726Z 08003KT 20/15 A3002 RMK A01 T01990152  RH  074%=      5-min Rain = 0
KSC1 221727Z 07003KT 20/15 A3002 RMK A01 T01990150  RH  073%=      5-min Rain = 0
KSC1 221728Z 06002KT 20/15 A3002 RMK A01 T01990150  RH  074%=      5-min Rain = 0
KSC1 221729Z 07002KT 20/15 A3002 RMK A01 T01980151  RH  074%=      5-min Rain = 0
KSC1 221730Z 07002KT 20/15 A3002 RMK A01 T01990153  RH  075%=      5-min Rain = 0
KSC1 221731Z 09002KT 20/15 A3002 RMK A01 T02000154  RH  075%=      5-min Rain = 0
KSC1 221732Z 09005KT 20/15 A3001 RMK A01 T02020154  RH  074%=      5-min Rain = 0
KSC1 221733Z 08004KT 20/15 A3001 RMK A01 T02030153  RH  073%=      5-min Rain = 0
KSC1 221734Z 09005KT 20/15 A3001 RMK A01 T02030153  RH  073%=      5-min Rain = 0
KSC1 221735Z 09006KT 20/15 A3002 RMK A01 T02030153  RH  073%=      5-min Rain = 0
KSC1 221736Z 09004KT 20/15 A3002 RMK A01 T02030153  RH  073%=      5-min Rain = 0
KSC1 221737Z 11004KT 20/15 A3002 RMK A01 T02040153  RH  073%=      5-min Rain = 0
KSC1 221738Z 13003KT 20/15 A3002 RMK A01 T02040153  RH  072%=      5-min Rain = 0
KSC1 221739Z 09005KT 21/15 A3002 RMK A01 T02050154  RH  072%=      5-min Rain = 0
KSC1 221740Z 09005KT 21/16 A3002 RMK A01 T02060155  RH  073%=      5-min Rain = 0
KSC1 221741Z 10005KT 21/15 A3002 RMK A01 T02060153  RH  072%=      5-min Rain = 0
KSC1 221742Z 10005KT 21/16 A3002 RMK A01 T02060155  RH  073%=      5-min Rain = 0
KSC1 221743Z 12006KT 21/16 A3002 RMK A01 T02070157  RH  073%=      5-min Rain = 0
KSC1 221744Z 11004KT 21/15 A3001 RMK A01 T02080153  RH  071%=      5-min Rain = 0
KSC1 221745Z 11004KT 21/15 A3001 RMK A01 T02070152  RH  071%=      5-min Rain = 0
KSC1 221746Z 13004KT 21/15 A3001 RMK A01 T02060153  RH  072%=      5-min Rain = 0
KSC1 221747Z 12004KT 21/15 A3001 RMK A01 T02060154  RH  072%=      5-min Rain = 0
KSC1 221748Z 12005KT 21/15 A3001 RMK A01 T02070151  RH  071%=      5-min Rain = 0
KSC1 221749Z 11005KT 21/15 A3001 RMK A01 T02060152  RH  071%=      5-min Rain = 0
KSC1 221750Z 11004KT 21/15 A3002 RMK A01 T02060153  RH  071%=      5-min Rain = 0
KSC1 221751Z 14004KT 21/15 A3002 RMK A01 T02050151  RH  071%=      5-min Rain = 0
KSC1 221752Z 13005KT 21/15 A3002 RMK A01 T02050152  RH  071%=      5-min Rain = 0
KSC1 221753Z 12005KT 21/15 A3002 RMK A01 T02050152  RH  072%=      5-min Rain = 0
KSC1 221754Z 10005KT 21/15 A3002 RMK A01 T02050153  RH  072%=      5-min Rain = 0
KSC1 221755Z 10006KT 21/15 A3002 RMK A01 T02050152  RH  072%=      5-min Rain = 0
KSC1 221756Z 10005KT 20/15 A3002 RMK A01 T02040151  RH  072%=      5-min Rain = 0
KSC1 221757Z 12005KT 20/15 A3002 RMK A01 T02040152  RH  072%=      5-min Rain = 0
KSC1 221758Z 14004KT 20/15 A3002 RMK A01 T02030152  RH  072%=      5-min Rain = 0
KSC1 221759Z 14004KT 20/15 A3001 RMK A01 T02030153  RH  073%=      5-min Rain = 0
KSC1 221800Z 11004KT 20/16 A3001 RMK A01 T02040155  RH  074%=      5-min Rain = 0
KSC1 221801Z 07002KT 21/16 A3002 RMK A01 T02050155  RH  073%=      5-min Rain = 0
KSC1 221802Z 06004KT 21/15 A3002 RMK A01 T02050153  RH  072%=      5-min Rain = 0
KSC1 221803Z 10004KT 21/16 A3002 RMK A01 T02050155  RH  073%=      5-min Rain = 0
KSC1 221804Z 10005KT 21/16 A3002 RMK A01 T02060155  RH  073%=      5-min Rain = 0
KSC1 221805Z 10006KT 21/16 A3001 RMK A01 T02060157  RH  073%=      5-min Rain = 0
KSC1 221806Z 09007KT 21/16 A3001 RMK A01 T02060155  RH  073%=      5-min Rain = 0
KSC1 221807Z 09008KT 21/16 A3001 RMK A01 T02060158  RH  073%=      5-min Rain = 0
KSC1 221808Z 08007KT 21/16 A3001 RMK A01 T02070155  RH  072%=      5-min Rain = 0
KSC1 221809Z 09006KT 21/16 A3001 RMK A01 T02060155  RH  072%=      5-min Rain = 0
KSC1 221810Z 09005KT 21/16 A3001 RMK A01 T02060155  RH  072%=      5-min Rain = 0
KSC1 221811Z 10006KT 21/16 A3001 RMK A01 T02060155  RH  072%=      5-min Rain = 0
KSC1 221812Z 10004KT 21/15 A3001 RMK A01 T02060154  RH  072%=      5-min Rain = 0
KSC1 221813Z 09006KT 21/16 A3001 RMK A01 T02060155  RH  073%=      5-min Rain = 0
KSC1 221814Z 09004KT 21/15 A3001 RMK A01 T02060154  RH  072%=      5-min Rain = 0
KSC1 221815Z 07004KT 21/15 A3001 RMK A01 T02060154  RH  072%=      5-min Rain = 0
KSC1 221816Z 09006KT 21/16 A3001 RMK A01 T02060156  RH  073%=      5-min Rain = 0
KSC1 221817Z 09004KT 21/15 A3001 RMK A01 T02060153  RH  072%=      5-min Rain = 0
KSC1 221818Z 09004KT 21/16 A3001 RMK A01 T02070156  RH  073%=      5-min Rain = 0
KSC1 221819Z 08005KT 21/16 A3001 RMK A01 T02080155  RH  072%=      5-min Rain = 0
KSC1 221820Z 09006KT 21/16 A3001 RMK A01 T02080155  RH  071%=      5-min Rain = 0
KSC1 221821Z 10005KT 21/15 A3001 RMK A01 T02080154  RH  071%=      5-min Rain = 0
KSC1 221822Z 10007KT 21/16 A3001 RMK A01 T02080155  RH  072%=      5-min Rain = 0
KSC1 221823Z 09006KT 21/16 A3001 RMK A01 T02090158  RH  072%=      5-min Rain = 0
KSC1 221824Z 10005KT 21/16 A3001 RMK A01 T02100155  RH  071%=      5-min Rain = 0
KSC1 221825Z 09004KT 21/16 A3001 RMK A01 T02100156  RH  071%=      5-min Rain = 0
KSC1 221826Z 08004KT 21/16 A30 RMK A01 T02100157  RH  071%=      5-min Rain = 0
KSC1 221827Z 08008KT 21/16 A30 RMK A01 T02110157  RH  071%=      5-min Rain = 0
KSC1 221828Z 10008KT 21/16 A30 RMK A01 T02120158  RH  071%=      5-min Rain = 0
KSC1 221829Z 10007KT 21/16 A30 RMK A01 T02140157  RH  070%=      5-min Rain = 0
KSC1 221830Z 10007KT 21/16 A30 RMK A01 T02140155  RH  069%=      5-min Rain = 0
KSC1 221831Z 10006KT 21/16 A30 RMK A01 T02140155  RH  069%=      5-min Rain = 0
KSC1 221832Z 10007KT 21/16 A30 RMK A01 T02140155  RH  069%=      5-min Rain = 0
KSC1 221833Z 11007KT 21/16 A30 RMK A01 T02140155  RH  069%=      5-min Rain = 0
KSC1 221834Z 12007KT 22/16 A30 RMK A01 T02150156  RH  069%=      5-min Rain = 0
KSC1 221835Z 12007KT 22/16 A30 RMK A01 T02160157  RH  069%=      5-min Rain = 0
KSC1 221836Z 09007KT 22/16 A30 RMK A01 T02180159  RH  069%=      5-min Rain = 0
KSC1 221837Z 09007KT 22/16 A30 RMK A01 T02190157  RH  068%=      5-min Rain = 0
KSC1 221838Z 10006KT 22/16 A30 RMK A01 T02180156  RH  068%=      5-min Rain = 0
KSC1 221839Z 13002KT 22/15 A30 RMK A01 T02160153  RH  067%=      5-min Rain = 0
KSC1 221840Z 09002KT 22/15 A3001 RMK A01 T02150154  RH  068%=      5-min Rain = 0
KSC1 221841Z 12004KT 22/16 A3001 RMK A01 T02150155  RH  069%=      5-min Rain = 0
KSC1 221842Z 13006KT 22/16 A3001 RMK A01 T02150156  RH  069%=      5-min Rain = 0
KSC1 221843Z 11005KT 22/16 A30 RMK A01 T02170158  RH  069%=      5-min Rain = 0
KSC1 221844Z 11006KT 22/16 A30 RMK A01 T02170156  RH  068%=      5-min Rain = 0
KSC1 221845Z 12005KT 22/16 A3001 RMK A01 T02170156  RH  069%=      5-min Rain = 0
KSC1 221846Z 12007KT 22/16 A3001 RMK A01 T02160157  RH  069%=      5-min Rain = 0
KSC1 221847Z 11005KT 22/15 A3001 RMK A01 T02160154  RH  068%=      5-min Rain = 0
KSC1 221848Z 09006KT 22/16 A3001 RMK A01 T02150155  RH  068%=      5-min Rain = 0
KSC1 221849Z 08005KT 22/16 A3001 RMK A01 T02150155  RH  069%=      5-min Rain = 0
KSC1 221850Z 10006KT 22/16 A3001 RMK A01 T02150155  RH  069%=      5-min Rain = 0
KSC1 221851Z 12005KT 22/15 A3001 RMK A01 T02150154  RH  068%=      5-min Rain = 0
KSC1 221852Z 11005KT 22/15 A3001 RMK A01 T02150154  RH  068%=      5-min Rain = 0
KSC1 221853Z 14005KT 22/15 A30 RMK A01 T02150154  RH  068%=      5-min Rain = 0
KSC1 221854Z 10004KT 22/15 A30 RMK A01 T02150154  RH  068%=      5-min Rain = 0
KSC1 221855Z 10004KT 22/16 A30 RMK A01 T02160157  RH  069%=      5-min Rain = 0
KSC1 221856Z 14006KT 22/16 A30 RMK A01 T02170156  RH  068%=      5-min Rain = 0
KSC1 221857Z 14006KT 22/15 A30 RMK A01 T02170154  RH  067%=      5-min Rain = 0
KSC1 221858Z 14005KT 22/15 A3001 RMK A01 T02170153  RH  067%=      5-min Rain = 0
KSC1 221859Z 14005KT 22/15 A3001 RMK A01 T02170154  RH  067%=      5-min Rain = 0
KSC1 221900Z 14005KT 22/16 A30 RMK A01 T02170156  RH  068%=      5-min Rain = 0
KSC1 221901Z 12005KT 22/16 A30 RMK A01 T02180157  RH  068%=      5-min Rain = 0
KSC1 221902Z 12004KT 22/16 A30 RMK A01 T02190159  RH  069%=      5-min Rain = 0
KSC1 221903Z 13005KT 22/16 A30 RMK A01 T02190157  RH  068%=      5-min Rain = 0
KSC1 221904Z 11004KT 22/16 A30 RMK A01 T02190157  RH  068%=      5-min Rain = 0
KSC1 221905Z 11004KT 22/16 A30 RMK A01 T02190157  RH  068%=      5-min Rain = 0
KSC1 221906Z 10003KT 22/16 A30 RMK A01 T02190159  RH  068%=      5-min Rain = 0
KSC1 221907Z 11002KT 22/16 A30 RMK A01 T02200161  RH  069%=      5-min Rain = 0
KSC1 221908Z 11003KT 22/16 A30 RMK A01 T02210160  RH  068%=      5-min Rain = 0
KSC1 221909Z 13004KT 22/16 A30 RMK A01 T02220158  RH  067%=      5-min Rain = 0
KSC1 221910Z 13005KT 22/16 A30 RMK A01 T02220156  RH  066%=      5-min Rain = 0
KSC1 221911Z 14003KT 22/16 A30 RMK A01 T02220156  RH  066%=      5-min Rain = 0
KSC1 221912Z 13003KT 22/16 A30 RMK A01 T02220155  RH  066%=      5-min Rain = 0
KSC1 221913Z 13006KT 22/16 A30 RMK A01 T02220156  RH  066%=      5-min Rain = 0
KSC1 221914Z 11006KT 22/16 A30 RMK A01 T02230155  RH  066%=      5-min Rain = 0
KSC1 221915Z 11006KT 22/16 A30 RMK A01 T02230155  RH  066%=      5-min Rain = 0
KSC1 221916Z 10003KT 22/16 A30 RMK A01 T02230160  RH  067%=      5-min Rain = 0
KSC1 221917Z 11006KT 22/16 A2999 RMK A01 T02240159  RH  066%=      5-min Rain = 0
KSC1 221918Z 12007KT 23/16 A2999 RMK A01 T02250158  RH  066%=      5-min Rain = 0
KSC1 221919Z 09007KT 23/16 A2999 RMK A01 T02250158  RH  065%=      5-min Rain = 0
KSC1 221920Z 10006KT 23/16 A30 RMK A01 T02260157  RH  065%=      5-min Rain = 0
KSC1 221921Z 10004KT 23/16 A30 RMK A01 T02250157  RH  065%=      5-min Rain = 0
KSC1 221922Z 10003KT 23/16 A30 RMK A01 T02250156  RH  065%=      5-min Rain = 0
KSC1 221923Z 09003KT 23/16 A2999 RMK A01 T02260161  RH  067%=      5-min Rain = 0
KSC1 221924Z 08006KT 23/16 A2999 RMK A01 T02290163  RH  066%=      5-min Rain = 0
KSC1 221925Z 10007KT 23/16 A2999 RMK A01 T02300160  RH  065%=      5-min Rain = 0
KSC1 221926Z 11006KT 23/16 A2999 RMK A01 T02310159  RH  064%=      5-min Rain = 0
KSC1 221927Z 11005KT 23/16 A2999 RMK A01 T02310163  RH  066%=      5-min Rain = 0
KSC1 221928Z 08006KT 23/16 A2999 RMK A01 T02320164  RH  065%=      5-min Rain = 0
KSC1 221929Z 07005KT 23/16 A2999 RMK A01 T02310163  RH  065%=      5-min Rain = 0
KSC1 221930Z 07005KT 23/16 A2999 RMK A01 T02290160  RH  065%=      5-min Rain = 0
KSC1 221931Z 08005KT 23/16 A2999 RMK A01 T02260161  RH  067%=      5-min Rain = 0
KSC1 221932Z 08006KT 23/16 A2999 RMK A01 T02250162  RH  067%=      5-min Rain = 0
KSC1 221933Z 08005KT 23/16 A30 RMK A01 T02250160  RH  067%=      5-min Rain = 0
KSC1 221934Z 08005KT 23/16 A30 RMK A01 T02250161  RH  067%=      5-min Rain = 0
KSC1 221935Z 11007KT 23/16 A30 RMK A01 T02250163  RH  068%=      5-min Rain = 0
KSC1 221936Z 11009KT 23/16 A30 RMK A01 T02260159  RH  066%=      5-min Rain = 0
KSC1 221937Z 09007KT 23/16 A30 RMK A01 T02260160  RH  066%=      5-min Rain = 0
KSC1 221938Z 10007KT 23/16 A30 RMK A01 T02260157  RH  065%=      5-min Rain = 0
KSC1 221939Z 11006KT 23/16 A30 RMK A01 T02250157  RH  065%=      5-min Rain = 0
KSC1 221940Z 11005KT 22/16 A30 RMK A01 T02240158  RH  066%=      5-min Rain = 0
KSC1 221941Z 11006KT 23/16 A2999 RMK A01 T02250159  RH  066%=      5-min Rain = 0
KSC1 221942Z 12007KT 23/16 A30 RMK A01 T02250161  RH  067%=      5-min Rain = 0
KSC1 221943Z 12010KT 23/16 A30 RMK A01 T02270159  RH  065%=      5-min Rain = 0
KSC1 221944Z 12010KT 23/16 A30 RMK A01 T02270155  RH  064%=      5-min Rain = 0
KSC1 221945Z 15007KT 23/16 A30 RMK A01 T02270156  RH  064%=      5-min Rain = 0
KSC1 221946Z 15007KT 23/16 A30 RMK A01 T02270156  RH  064%=      5-min Rain = 0
KSC1 221947Z 13007KT 23/16 A30 RMK A01 T02270155  RH  064%=      5-min Rain = 0
KSC1 221948Z 13009KT 23/16 A30 RMK A01 T02270156  RH  064%=      5-min Rain = 0
KSC1 221949Z 13009KT 23/16 A30 RMK A01 T02280155  RH  063%=      5-min Rain = 0
KSC1 221950Z 13009KT 23/16 A2999 RMK A01 T02300155  RH  063%=      5-min Rain = 0
KSC1 221951Z 14006KT 23/16 A2999 RMK A01 T02310157  RH  063%=      5-min Rain = 0
KSC1 221952Z 12006KT 23/16 A2999 RMK A01 T02330158  RH  063%=      5-min Rain = 0
KSC1 221953Z 14006KT 24/16 A2999 RMK A01 T02350159  RH  062%=      5-min Rain = 0
KSC1 221954Z 15007KT 24/16 A2999 RMK A01 T02360158  RH  062%=      5-min Rain = 0
KSC1 221955Z 15008KT 24/16 A2999 RMK A01 T02360157  RH  061%=      5-min Rain = 0
KSC1 221956Z 16007KT 24/16 A2999 RMK A01 T02360157  RH  061%=      5-min Rain = 0
KSC1 221957Z 15009KT 24/16 A2999 RMK A01 T02360157  RH  061%=      5-min Rain = 0
KSC1 221958Z 13007KT 24/16 A2999 RMK A01 T02360159  RH  062%=      5-min Rain = 0
KSC1 221959Z 13009KT 24/16 A2999 RMK A01 T02370155  RH  060%=      5-min Rain = 0
KSC1 222000Z 13007KT 24/16 A2999 RMK A01 T02370155  RH  060%=      5-min Rain = 0
KSC1 222001Z 14008KT 24/15 A2999 RMK A01 T02370154  RH  060%=      5-min Rain = 0
KSC1 222002Z 13007KT 24/16 A2999 RMK A01 T02360155  RH  060%=      5-min Rain = 0
KSC1 222003Z 14009KT 24/16 A2999 RMK A01 T02370155  RH  060%=      5-min Rain = 0
KSC1 222004Z 14007KT 24/15 A2999 RMK A01 T02370153  RH  060%=      5-min Rain = 0
KSC1 222005Z 12008KT 24/16 A2999 RMK A01 T02360155  RH  060%=      5-min Rain = 0
KSC1 222006Z 11010KT 24/16 A2999 RMK A01 T02360156  RH  061%=      5-min Rain = 0
KSC1 222007Z 13008KT 24/16 A2998 RMK A01 T02370157  RH  061%=      5-min Rain = 0
KSC1 222008Z 14007KT 24/16 A2998 RMK A01 T02380155  RH  060%=      5-min Rain = 0
KSC1 222009Z 11007KT 24/16 A2999 RMK A01 T02380158  RH  061%=      5-min Rain = 0
KSC1 222010Z 11010KT 24/16 A2998 RMK A01 T02380160  RH  062%=      5-min Rain = 0
KSC1 222011Z 10010KT 24/16 A2999 RMK A01 T02380155  RH  060%=      5-min Rain = 0
KSC1 222012Z 12008KT 24/15 A2998 RMK A01 T02360154  RH  060%=      5-min Rain = 0
KSC1 222013Z 13008KT 24/16 A2998 RMK A01 T02350156  RH  061%=      5-min Rain = 0
KSC1 222014Z 13008KT 24/15 A2998 RMK A01 T02350154  RH  060%=      5-min Rain = 0
KSC1 222015Z 13006KT 23/15 A2998 RMK A01 T02340154  RH  060%=      5-min Rain = 0
KSC1 222016Z 14008KT 23/16 A2998 RMK A01 T02340157  RH  062%=      5-min Rain = 0
KSC1 222017Z 13008KT 24/15 A2998 RMK A01 T02350154  RH  060%=      5-min Rain = 0
KSC1 222018Z 12006KT 24/16 A2998 RMK A01 T02350156  RH  061%=      5-min Rain = 0
KSC1 222019Z 13008KT 24/16 A2998 RMK A01 T02360157  RH  061%=      5-min Rain = 0
KSC1 222020Z 11008KT 24/16 A2998 RMK A01 T02380157  RH  060%=      5-min Rain = 0
KSC1 222021Z 11006KT 24/16 A2998 RMK A01 T02390158  RH  060%=      5-min Rain = 0
KSC1 222022Z 10007KT 24/16 A2998 RMK A01 T02410159  RH  060%=      5-min Rain = 0
KSC1 222023Z 11008KT 24/16 A2999 RMK A01 T02410156  RH  059%=      5-min Rain = 0
KSC1 222024Z 09008KT 24/15 A2999 RMK A01 T02390154  RH  059%=      5-min Rain = 0
KSC1 222025Z 13009KT 24/16 A2999 RMK A01 T02380155  RH  060%=      5-min Rain = 0
KSC1 222026Z 13009KT 24/16 A2999 RMK A01 T02370155  RH  060%=      5-min Rain = 0
KSC1 222027Z 13009KT 24/15 A2999 RMK A01 T02370152  RH  059%=      5-min Rain = 0
KSC1 222028Z 13006KT 24/15 A2998 RMK A01 T02370151  RH  059%=      5-min Rain = 0
KSC1 222029Z 12005KT 24/16 A2998 RMK A01 T02360155  RH  060%=      5-min Rain = 0
KSC1 222030Z 11009KT 24/16 A2998 RMK A01 T02370155  RH  060%=      5-min Rain = 0
KSC1 222031Z 10011KT 24/16 A2998 RMK A01 T02380156  RH  060%=      5-min Rain = 0
KSC1 222032Z 10010KT 24/16 A2998 RMK A01 T02380155  RH  060%=      5-min Rain = 0
KSC1 222033Z 10010KT 24/16 A2998 RMK A01 T02370155  RH  060%=      5-min Rain = 0
KSC1 222034Z 10007KT 24/15 A2998 RMK A01 T02350153  RH  060%=      5-min Rain = 0
KSC1 222035Z 09006KT 23/15 A2998 RMK A01 T02330154  RH  061%=      5-min Rain = 0
KSC1 222036Z 09006KT 23/15 A2998 RMK A01 T02330154  RH  061%=      5-min Rain = 0
KSC1 222037Z 10008KT 23/16 A2998 RMK A01 T02330156  RH  062%=      5-min Rain = 0
KSC1 222038Z 13011KT 23/15 A2998 RMK A01 T02330154  RH  061%=      5-min Rain = 0
KSC1 222039Z 14007KT 23/15 A2999 RMK A01 T02330153  RH  061%=      5-min Rain = 0
KSC1 222040Z 14007KT 23/15 A2998 RMK A01 T02320152  RH  061%=      5-min Rain = 0
KSC1 222041Z 11009KT 23/15 A2998 RMK A01 T02310152  RH  061%=      5-min Rain = 0
KSC1 222042Z 11007KT 23/15 A2998 RMK A01 T02310153  RH  062%=      5-min Rain = 0
KSC1 222043Z 11006KT 23/16 A2998 RMK A01 T02300155  RH  062%=      5-min Rain = 0
KSC1 222044Z 12007KT 23/15 A2998 RMK A01 T02310154  RH  062%=      5-min Rain = 0
KSC1 222045Z 13008KT 23/15 A2998 RMK A01 T02300152  RH  061%=      5-min Rain = 0
KSC1 222046Z 11009KT 23/15 A2998 RMK A01 T02300154  RH  062%=      5-min Rain = 0
KSC1 222047Z 11011KT 23/15 A2998 RMK A01 T02300154  RH  062%=      5-min Rain = 0
KSC1 222048Z 11009KT 23/15 A2998 RMK A01 T02290153  RH  062%=      5-min Rain = 0
KSC1 222049Z 11007KT 23/15 A2998 RMK A01 T02290152  RH  062%=      5-min Rain = 0
KSC1 222050Z 09010KT 23/15 A2998 RMK A01 T02280153  RH  063%=      5-min Rain = 0
KSC1 222051Z 10008KT 23/15 A2998 RMK A01 T02270153  RH  063%=      5-min Rain = 0
KSC1 222052Z 11009KT 23/15 A2998 RMK A01 T02270153  RH  063%=      5-min Rain = 0
KSC1 222053Z 12007KT 23/15 A2998 RMK A01 T02260154  RH  064%=      5-min Rain = 0
KSC1 222054Z 11008KT 23/15 A2998 RMK A01 T02260154  RH  064%=      5-min Rain = 0
KSC1 222055Z 10008KT 23/15 A2998 RMK A01 T02250154  RH  064%=      5-min Rain = 0
KSC1 222056Z 10007KT 23/15 A2998 RMK A01 T02250153  RH  064%=      5-min Rain = 0
KSC1 222057Z 10008KT 23/15 A2998 RMK A01 T02250153  RH  064%=      5-min Rain = 0
KSC1 222058Z 11007KT 23/15 A2998 RMK A01 T02250153  RH  064%=      5-min Rain = 0
KSC1 222059Z 11008KT 22/15 A2997 RMK A01 T02240153  RH  064%=      5-min Rain = 0
KSC1 222100Z 10007KT 22/15 A2997 RMK A01 T02240153  RH  064%=      5-min Rain = 0
KSC1 222101Z 11008KT 22/15 A2997 RMK A01 T02240152  RH  063%=      5-min Rain = 0
KSC1 222102Z 09008KT 22/15 A2997 RMK A01 T02240151  RH  063%=      5-min Rain = 0
KSC1 222103Z 10007KT 22/15 A2997 RMK A01 T02240152  RH  064%=      5-min Rain = 0
KSC1 222104Z 10007KT 22/15 A2997 RMK A01 T02240153  RH  064%=      5-min Rain = 0
KSC1 222105Z 10009KT 22/15 A2997 RMK A01 T02240153  RH  064%=      5-min Rain = 0
KSC1 222106Z 10010KT 22/15 A2997 RMK A01 T02240153  RH  064%=      5-min Rain = 0
KSC1 222107Z 10008KT 22/15 A2997 RMK A01 T02230152  RH  064%=      5-min Rain = 0
KSC1 222108Z 10006KT 22/15 A2997 RMK A01 T02230153  RH  065%=      5-min Rain = 0
KSC1 222109Z 09008KT 22/15 A2997 RMK A01 T02230154  RH  065%=      5-min Rain = 0
KSC1 222110Z 09006KT 22/15 A2997 RMK A01 T02230154  RH  065%=      5-min Rain = 0
KSC1 222111Z 09009KT 22/16 A2997 RMK A01 T02240156  RH  065%=      5-min Rain = 0
KSC1 222112Z 09010KT 22/15 A2997 RMK A01 T02240153  RH  064%=      5-min Rain = 0
KSC1 222113Z 10011KT 22/15 A2997 RMK A01 T02240152  RH  064%=      5-min Rain = 0
KSC1 222114Z 09006KT 22/15 A2997 RMK A01 T02240154  RH  065%=      5-min Rain = 0
KSC1 222115Z 09007KT 23/16 A2997 RMK A01 T02250157  RH  066%=      5-min Rain = 0
KSC1 222116Z 09008KT 23/16 A2997 RMK A01 T02250155  RH  064%=      5-min Rain = 0
KSC1 222117Z 09008KT 23/16 A2997 RMK A01 T02260155  RH  064%=      5-min Rain = 0
KSC1 222118Z 09007KT 23/16 A2997 RMK A01 T02260155  RH  064%=      5-min Rain = 0
KSC1 222119Z 08007KT 23/16 A2997 RMK A01 T02260155  RH  064%=      5-min Rain = 0
KSC1 222120Z 09008KT 23/15 A2997 RMK A01 T02260154  RH  064%=      5-min Rain = 0
KSC1 222121Z 09008KT 23/15 A2997 RMK A01 T02260154  RH  064%=      5-min Rain = 0
KSC1 222122Z 10010KT 23/15 A2997 RMK A01 T02260154  RH  064%=      5-min Rain = 0
KSC1 222123Z 10009KT 23/15 A2996 RMK A01 T02250154  RH  064%=      5-min Rain = 0
KSC1 222124Z 09009KT 23/15 A2996 RMK A01 T02250154  RH  064%=      5-min Rain = 0
KSC1 222125Z 09006KT 22/16 A2996 RMK A01 T02240155  RH  065%=      5-min Rain = 0
KSC1 222126Z 07006KT 22/16 A2996 RMK A01 T02240155  RH  065%=      5-min Rain = 0
KSC1 222127Z 08006KT 22/16 A2997 RMK A01 T02240155  RH  065%=      5-min Rain = 0
KSC1 222128Z 08008KT 23/15 A2997 RMK A01 T02250154  RH  064%=      5-min Rain = 0
KSC1 222129Z 08007KT 22/15 A2997 RMK A01 T02240154  RH  065%=      5-min Rain = 0
KSC1 222130Z 09007KT 22/15 A2997 RMK A01 T02240154  RH  064%=      5-min Rain = 0
KSC1 222131Z 10005KT 22/16 A2997 RMK A01 T02240156  RH  065%=      5-min Rain = 0
KSC1 222132Z 09006KT 22/16 A2997 RMK A01 T02240157  RH  066%=      5-min Rain = 0
KSC1 222133Z 08008KT 22/16 A2997 RMK A01 T02240156  RH  066%=      5-min Rain = 0
KSC1 222134Z 08008KT 22/16 A2997 RMK A01 T02240156  RH  065%=      5-min Rain = 0
KSC1 222135Z 09010KT 22/16 A2997 RMK A01 T02230155  RH  065%=      5-min Rain = 0
KSC1 222136Z 07008KT 22/16 A2997 RMK A01 T02220155  RH  066%=      5-min Rain = 0
KSC1 222137Z 07007KT 22/16 A2997 RMK A01 T02220157  RH  066%=      5-min Rain = 0
KSC1 222138Z 07007KT 22/16 A2997 RMK A01 T02220156  RH  066%=      5-min Rain = 0
KSC1 222139Z 08007KT 22/16 A2997 RMK A01 T02220156  RH  066%=      5-min Rain = 0
KSC1 222140Z 08010KT 22/16 A2997 RMK A01 T02220156  RH  066%=      5-min Rain = 0
KSC1 222141Z 08009KT 22/16 A2997 RMK A01 T02220156  RH  066%=      5-min Rain = 0
KSC1 222142Z 08009KT 22/16 A2997 RMK A01 T02220155  RH  066%=      5-min Rain = 0
KSC1 222143Z 08009KT 22/16 A2997 RMK A01 T02220155  RH  066%=      5-min Rain = 0
KSC1 222144Z 08009KT 22/16 A2997 RMK A01 T02220156  RH  066%=      5-min Rain = 0
KSC1 222145Z 09008KT 22/16 A2997 RMK A01 T02220155  RH  066%=      5-min Rain = 0
KSC1 222146Z 10008KT 22/16 A2997 RMK A01 T02220156  RH  066%=      5-min Rain = 0
KSC1 222147Z 10009KT 22/16 A2997 RMK A01 T02220157  RH  066%=      5-min Rain = 0
KSC1 222148Z 08007KT 22/16 A2997 RMK A01 T02220157  RH  066%=      5-min Rain = 0
KSC1 222149Z 08007KT 22/16 A2997 RMK A01 T02220156  RH  066%=      5-min Rain = 0
KSC1 222150Z 07008KT 22/16 A2997 RMK A01 T02230157  RH  066%=      5-min Rain = 0
KSC1 222151Z 09009KT 22/16 A2997 RMK A01 T02230155  RH  065%=      5-min Rain = 0
KSC1 222152Z 09008KT 22/16 A2997 RMK A01 T02230156  RH  066%=      5-min Rain = 0
KSC1 222153Z 08006KT 22/16 A2997 RMK A01 T02230156  RH  066%=      5-min Rain = 0
KSC1 222154Z 08007KT 22/16 A2997 RMK A01 T02230156  RH  066%=      5-min Rain = 0
KSC1 222155Z 08009KT 22/16 A2998 RMK A01 T02230155  RH  066%=      5-min Rain = 0
KSC1 222156Z 09009KT 22/15 A2998 RMK A01 T02230154  RH  065%=      5-min Rain = 0
KSC1 222157Z 09010KT 22/15 A2998 RMK A01 T02220154  RH  065%=      5-min Rain = 0
KSC1 222158Z 08009KT 22/15 A2998 RMK A01 T02210153  RH  066%=      5-min Rain = 0
KSC1 222159Z 09009KT 22/15 A2998 RMK A01 T02200153  RH  066%=      5-min Rain = 0
KSC1 222200Z 08008KT 22/15 A2998 RMK A01 T02200153  RH  066%=      5-min Rain = 0
KSC1 222201Z 09008KT 22/15 A2998 RMK A01 T02190153  RH  066%=      5-min Rain = 0
KSC1 222202Z 08007KT 22/15 A2998 RMK A01 T02190153  RH  066%=      5-min Rain = 0
KSC1 222203Z 08008KT 22/15 A2998 RMK A01 T02190153  RH  066%=      5-min Rain = 0
KSC1 222204Z 10007KT 22/15 A2998 RMK A01 T02190154  RH  067%=      5-min Rain = 0
KSC1 222205Z 11006KT 22/16 A2998 RMK A01 T02190155  RH  067%=      5-min Rain = 0
KSC1 222206Z 10008KT 22/16 A2998 RMK A01 T02190155  RH  067%=      5-min Rain = 0
KSC1 222207Z 10007KT 22/15 A2998 RMK A01 T02190154  RH  067%=      5-min Rain = 0
KSC1 222208Z 10007KT 22/16 A2998 RMK A01 T02190155  RH  067%=      5-min Rain = 0
KSC1 222209Z 10006KT 22/16 A2998 RMK A01 T02190156  RH  067%=      5-min Rain = 0
KSC1 222210Z 10008KT 22/16 A2998 RMK A01 T02180155  RH  067%=      5-min Rain = 0
KSC1 222211Z 10007KT 22/15 A2998 RMK A01 T02190154  RH  066%=      5-min Rain = 0
KSC1 222212Z 10006KT 22/15 A2998 RMK A01 T02190153  RH  066%=      5-min Rain = 0
KSC1 222213Z 09007KT 22/16 A2998 RMK A01 T02190155  RH  067%=      5-min Rain = 0
KSC1 222214Z 08005KT 22/16 A2998 RMK A01 T02190155  RH  067%=      5-min Rain = 0
KSC1 222215Z 08007KT 22/16 A2997 RMK A01 T02190156  RH  067%=      5-min Rain = 0
KSC1 222216Z 08008KT 22/15 A2997 RMK A01 T02190154  RH  066%=      5-min Rain = 0
KSC1 222217Z 08007KT 22/15 A2997 RMK A01 T02190154  RH  067%=      5-min Rain = 0
KSC1 222218Z 08007KT 22/16 A2997 RMK A01 T02200156  RH  067%=      5-min Rain = 0
KSC1 222219Z 08009KT 22/16 A2997 RMK A01 T02200155  RH  067%=      5-min Rain = 0
KSC1 222220Z 07008KT 22/16 A2997 RMK A01 T02200155  RH  067%=      5-min Rain = 0
KSC1 222221Z 08008KT 22/16 A2997 RMK A01 T02200155  RH  066%=      5-min Rain = 0
KSC1 222222Z 08007KT 22/15 A2997 RMK A01 T02200154  RH  066%=      5-min Rain = 0
KSC1 222223Z 07007KT 22/15 A2997 RMK A01 T02200154  RH  066%=      5-min Rain = 0
KSC1 222224Z 08007KT 22/16 A2997 RMK A01 T02210155  RH  066%=      5-min Rain = 0
KSC1 222225Z 08006KT 22/16 A2997 RMK A01 T02210155  RH  066%=      5-min Rain = 0
KSC1 222226Z 09006KT 22/16 A2997 RMK A01 T02210156  RH  066%=      5-min Rain = 0
KSC1 222227Z 08008KT 22/16 A2997 RMK A01 T02210155  RH  066%=      5-min Rain = 0
KSC1 222228Z 09005KT 22/16 A2997 RMK A01 T02210155  RH  066%=      5-min Rain = 0
KSC1 222229Z 08005KT 22/16 A2997 RMK A01 T02210156  RH  066%=      5-min Rain = 0
KSC1 222230Z 07005KT 22/16 A2997 RMK A01 T02210157  RH  067%=      5-min Rain = 0
KSC1 222231Z 08007KT 22/16 A2997 RMK A01 T02220156  RH  066%=      5-min Rain = 0
KSC1 222232Z 08005KT 22/16 A2997 RMK A01 T02220156  RH  066%=      5-min Rain = 0
KSC1 222233Z 08007KT 22/16 A2997 RMK A01 T02220156  RH  066%=      5-min Rain = 0
KSC1 222234Z 08008KT 22/16 A2997 RMK A01 T02220155  RH  066%=      5-min Rain = 0
KSC1 222235Z 08005KT 22/16 A2997 RMK A01 T02220155  RH  066%=      5-min Rain = 0
KSC1 222236Z 08006KT 22/16 A2997 RMK A01 T02220157  RH  067%=      5-min Rain = 0
KSC1 222237Z 08007KT 22/16 A2997 RMK A01 T02220156  RH  066%=      5-min Rain = 0
KSC1 222238Z 08006KT 22/16 A2998 RMK A01 T02210156  RH  066%=      5-min Rain = 0
KSC1 222239Z 08004KT 22/16 A2998 RMK A01 T02210157  RH  067%=      5-min Rain = 0
KSC1 222240Z 07005KT 22/16 A2998 RMK A01 T02210157  RH  067%=      5-min Rain = 0
KSC1 222241Z 06005KT 22/16 A2998 RMK A01 T02210156  RH  067%=      5-min Rain = 0
KSC1 222242Z 08004KT 22/16 A2998 RMK A01 T02210157  RH  067%=      5-min Rain = 0
KSC1 222243Z 07005KT 22/16 A2998 RMK A01 T02210156  RH  067%=      5-min Rain = 0
KSC1 222244Z 07006KT 22/16 A2998 RMK A01 T02210156  RH  067%=      5-min Rain = 0
KSC1 222245Z 07005KT 22/16 A2998 RMK A01 T02200155  RH  066%=      5-min Rain = 0
KSC1 222246Z 07005KT 22/16 A2998 RMK A01 T02200155  RH  066%=      5-min Rain = 0
KSC1 222247Z 07005KT 22/16 A2998 RMK A01 T02210156  RH  067%=      5-min Rain = 0
KSC1 222248Z 08006KT 22/16 A2998 RMK A01 T02200156  RH  067%=      5-min Rain = 0
KSC1 222249Z 08005KT 22/16 A2998 RMK A01 T02200155  RH  067%=      5-min Rain = 0
KSC1 222250Z 08007KT 22/16 A2998 RMK A01 T02200155  RH  067%=      5-min Rain = 0
KSC1 222251Z 08006KT 22/16 A2998 RMK A01 T02200155  RH  066%=      5-min Rain = 0
KSC1 222252Z 08005KT 22/16 A2998 RMK A01 T02210156  RH  067%=      5-min Rain = 0
KSC1 222253Z 09006KT 22/15 A2998 RMK A01 T02200154  RH  066%=      5-min Rain = 0
KSC1 222254Z 09006KT 22/16 A2998 RMK A01 T02200155  RH  066%=      5-min Rain = 0
KSC1 222255Z 09005KT 22/16 A2998 RMK A01 T02210155  RH  066%=      5-min Rain = 0
KSC1 222256Z 09005KT 22/16 A2998 RMK A01 T02200156  RH  067%=      5-min Rain = 0
KSC1 222257Z 09005KT 22/16 A2998 RMK A01 T02210157  RH  067%=      5-min Rain = 0
KSC1 222258Z 09006KT 22/16 A2998 RMK A01 T02200155  RH  066%=      5-min Rain = 0
KSC1 222259Z 09005KT 22/16 A2998 RMK A01 T02200156  RH  067%=      5-min Rain = 0
KSC1 222300Z 09004KT 22/16 A2998 RMK A01 T02200157  RH  067%=      5-min Rain = 0
KSC1 222301Z 10004KT 22/16 A2998 RMK A01 T02200157  RH  067%=      5-min Rain = 0
KSC1 222302Z 09004KT 22/16 A2998 RMK A01 T02200158  RH  068%=      5-min Rain = 0
KSC1 222303Z 08004KT 22/16 A2998 RMK A01 T02200158  RH  068%=      5-min Rain = 0
KSC1 222304Z 08005KT 22/16 A2998 RMK A01 T02200157  RH  067%=      5-min Rain = 0
KSC1 222305Z 09005KT 22/16 A2998 RMK A01 T02210157  RH  067%=      5-min Rain = 0
KSC1 222306Z 09005KT 22/16 A2998 RMK A01 T02210157  RH  067%=      5-min Rain = 0
KSC1 222307Z 08004KT 22/16 A2998 RMK A01 T02210158  RH  067%=      5-min Rain = 0
KSC1 222308Z 09007KT 22/16 A2998 RMK A01 T02210156  RH  067%=      5-min Rain = 0
KSC1 222309Z 09007KT 22/15 A2998 RMK A01 T02210154  RH  066%=      5-min Rain = 0
KSC1 222310Z 08006KT 22/16 A2998 RMK A01 T02210155  RH  066%=      5-min Rain = 0
KSC1 222311Z 08007KT 22/16 A2998 RMK A01 T02210155  RH  066%=      5-min Rain = 0
KSC1 222312Z 07007KT 22/15 A2998 RMK A01 T02210154  RH  066%=      5-min Rain = 0
KSC1 222313Z 08007KT 22/15 A2998 RMK A01 T02210154  RH  066%=      5-min Rain = 0
KSC1 222314Z 08006KT 22/15 A2998 RMK A01 T02210154  RH  066%=      5-min Rain = 0
KSC1 222315Z 09006KT 22/15 A2998 RMK A01 T02210154  RH  066%=      5-min Rain = 0
KSC1 222316Z 08005KT 22/16 A2998 RMK A01 T02210155  RH  066%=      5-min Rain = 0
KSC1 222317Z 08004KT 22/16 A2998 RMK A01 T02210155  RH  066%=      5-min Rain = 0
KSC1 222318Z 07004KT 22/16 A2998 RMK A01 T02210157  RH  067%=      5-min Rain = 0
KSC1 222319Z 07004KT 22/16 A2998 RMK A01 T02220157  RH  067%=      5-min Rain = 0
KSC1 222320Z 06005KT 22/16 A2998 RMK A01 T02220158  RH  067%=      5-min Rain = 0
KSC1 222321Z 07005KT 22/16 A2998 RMK A01 T02220156  RH  066%=      5-min Rain = 0
KSC1 222322Z 07004KT 22/16 A2998 RMK A01 T02220156  RH  066%=      5-min Rain = 0
KSC1 222323Z 07004KT 22/16 A2998 RMK A01 T02210157  RH  067%=      5-min Rain = 0
KSC1 222324Z 06005KT 22/16 A2998 RMK A01 T02210158  RH  067%=      5-min Rain = 0
KSC1 222325Z 07005KT 22/16 A2998 RMK A01 T02210157  RH  067%=      5-min Rain = 0
KSC1 222326Z 06005KT 22/16 A2998 RMK A01 T02210157  RH  067%=      5-min Rain = 0
KSC1 222327Z 06004KT 22/16 A2998 RMK A01 T02210157  RH  067%=      5-min Rain = 0
KSC1 222328Z 07005KT 22/16 A2998 RMK A01 T02210157  RH  067%=      5-min Rain = 0
KSC1 222329Z 06006KT 22/16 A2998 RMK A01 T02210156  RH  067%=      5-min Rain = 0
KSC1 222330Z 07006KT 22/16 A2998 RMK A01 T02210156  RH  067%=      5-min Rain = 0
KSC1 222331Z 07004KT 22/16 A2998 RMK A01 T02210156  RH  067%=      5-min Rain = 0
KSC1 222332Z 08005KT 22/16 A2998 RMK A01 T02210156  RH  067%=      5-min Rain = 0
KSC1 222333Z 07004KT 22/16 A2998 RMK A01 T02210156  RH  067%=      5-min Rain = 0
KSC1 222334Z 08006KT 22/16 A2998 RMK A01 T02220157  RH  067%=      5-min Rain = 0
KSC1 222335Z 08007KT 22/16 A2997 RMK A01 T02220156  RH  066%=      5-min Rain = 0
KSC1 222336Z 07005KT 22/15 A2997 RMK A01 T02220154  RH  065%=      5-min Rain = 0
KSC1 222337Z 07005KT 22/16 A2997 RMK A01 T02220157  RH  067%=      5-min Rain = 0
KSC1 222338Z 07006KT 22/16 A2997 RMK A01 T02220156  RH  066%=      5-min Rain = 0
KSC1 222339Z 07005KT 22/16 A2997 RMK A01 T02220157  RH  067%=      5-min Rain = 0
KSC1 222340Z 07006KT 22/16 A2997 RMK A01 T02220158  RH  067%=      5-min Rain = 0
KSC1 222341Z 08006KT 22/16 A2997 RMK A01 T02220157  RH  067%=      5-min Rain = 0
KSC1 222342Z 08006KT 22/16 A2998 RMK A01 T02220156  RH  066%=      5-min Rain = 0
KSC1 222343Z 08006KT 22/16 A2998 RMK A01 T02210156  RH  066%=      5-min Rain = 0
KSC1 222344Z 08006KT 22/16 A2998 RMK A01 T02210156  RH  066%=      5-min Rain = 0
KSC1 222345Z 08006KT 22/16 A2998 RMK A01 T02210155  RH  066%=      5-min Rain = 0
KSC1 222346Z 08006KT 22/16 A2998 RMK A01 T02210155  RH  066%=      5-min Rain = 0
KSC1 222347Z 08005KT 22/16 A2998 RMK A01 T02210155  RH  066%=      5-min Rain = 0
KSC1 222348Z 08004KT 22/16 A2998 RMK A01 T02210156  RH  067%=      5-min Rain = 0
KSC1 222349Z 08006KT 22/16 A2998 RMK A01 T02200156  RH  067%=      5-min Rain = 0
KSC1 222350Z 07005KT 22/16 A2997 RMK A01 T02200156  RH  067%=      5-min Rain = 0
KSC1 222351Z 07004KT 22/16 A2997 RMK A01 T02200157  RH  068%=      5-min Rain = 0
KSC1 222352Z 08005KT 22/16 A2997 RMK A01 T02190157  RH  068%=      5-min Rain = 0
KSC1 222353Z 07005KT 22/16 A2997 RMK A01 T02190157  RH  068%=      5-min Rain = 0
KSC1 222354Z 08004KT 22/16 A2997 RMK A01 T02190158  RH  068%=      5-min Rain = 0
KSC1 222355Z 08005KT 22/16 A2997 RMK A01 T02190157  RH  068%=      5-min Rain = 0
KSC1 222356Z 08005KT 22/16 A2997 RMK A01 T02190158  RH  068%=      5-min Rain = 0
KSC1 222357Z 07005KT 22/16 A2996 RMK A01 T02190158  RH  068%=      5-min Rain = 0
KSC1 222358Z 07006KT 22/16 A2996 RMK A01 T02180157  RH  068%=      5-min Rain = 0
KSC1 222359Z 07006KT 22/16 A2996 RMK A01 T02190158  RH  068%=      5-min Rain = 0
KSC1 230000Z 07005KT 22/16 A2996 RMK A01 T02180157  RH  068%=      5-min Rain = 0
KSC1 230001Z 07006KT 22/16 A2996 RMK A01 T02180158  RH  068%=      5-min Rain = 0
KSC1 230002Z 07005KT 22/16 A2996 RMK A01 T02180158  RH  068%=      5-min Rain = 0
KSC1 230003Z 06005KT 22/16 A2996 RMK A01 T02190157  RH  068%=      5-min Rain = 0
KSC1 230004Z 06005KT 22/16 A2996 RMK A01 T02180157  RH  068%=      5-min Rain = 0
KSC1 230005Z 06006KT 22/16 A2996 RMK A01 T02180157  RH  068%=      5-min Rain = 0
KSC1 230006Z 06006KT 22/16 A2996 RMK A01 T02180158  RH  068%=      5-min Rain = 0
KSC1 230007Z 06005KT 22/16 A2996 RMK A01 T02180158  RH  068%=      5-min Rain = 0
KSC1 230008Z 06005KT 22/16 A2996 RMK A01 T02180157  RH  068%=      5-min Rain = 0
KSC1 230009Z 06005KT 22/16 A2996 RMK A01 T02180158  RH  069%=      5-min Rain = 0
KSC1 230010Z 06005KT 22/16 A2996 RMK A01 T02180159  RH  069%=      5-min Rain = 0
KSC1 230011Z 07006KT 22/16 A2996 RMK A01 T02180158  RH  069%=      5-min Rain = 0
KSC1 230012Z 06005KT 22/16 A2996 RMK A01 T02170158  RH  069%=      5-min Rain = 0
KSC1 230013Z 06005KT 22/16 A2996 RMK A01 T02170158  RH  069%=      5-min Rain = 0
KSC1 230014Z 07005KT 22/16 A2996 RMK A01 T02170158  RH  069%=      5-min Rain = 0
KSC1 230015Z 07003KT 22/16 A2996 RMK A01 T02170158  RH  069%=      5-min Rain = 0
KSC1 230016Z 07004KT 22/16 A2996 RMK A01 T02170158  RH  069%=      5-min Rain = 0
KSC1 230017Z 07005KT 22/16 A2996 RMK A01 T02160158  RH  069%=      5-min Rain = 0
KSC1 230018Z 07004KT 22/16 A2996 RMK A01 T02160157  RH  069%=      5-min Rain = 0
KSC1 230019Z 07003KT 22/16 A2996 RMK A01 T02160157  RH  069%=      5-min Rain = 0
KSC1 230020Z 07003KT 22/16 A2996 RMK A01 T02160158  RH  070%=      5-min Rain = 0
KSC1 230021Z 07005KT 22/16 A2997 RMK A01 T02150158  RH  070%=      5-min Rain = 0
KSC1 230022Z 07004KT 22/16 A2997 RMK A01 T02150156  RH  069%=      5-min Rain = 0
KSC1 230023Z 07004KT 22/16 A2997 RMK A01 T02150156  RH  069%=      5-min Rain = 0
KSC1 230024Z 07004KT 22/16 A2997 RMK A01 T02150156  RH  069%=      5-min Rain = 0
KSC1 230025Z 08004KT 22/16 A2997 RMK A01 T02150157  RH  069%=      5-min Rain = 0
KSC1 230026Z 07004KT 22/16 A2997 RMK A01 T02150157  RH  069%=      5-min Rain = 0
KSC1 230027Z 08004KT 21/16 A2997 RMK A01 T02140157  RH  070%=      5-min Rain = 0
KSC1 230028Z 08004KT 21/16 A2997 RMK A01 T02140157  RH  070%=      5-min Rain = 0
KSC1 230029Z 08004KT 21/16 A2997 RMK A01 T02140157  RH  070%=      5-min Rain = 0
KSC1 230030Z 08004KT 21/16 A2997 RMK A01 T02140157  RH  070%=      5-min Rain = 0
KSC1 230031Z 08005KT 21/16 A2997 RMK A01 T02140158  RH  070%=      5-min Rain = 0
KSC1 230032Z 08004KT 21/16 A2997 RMK A01 T02140158  RH  070%=      5-min Rain = 0
KSC1 230033Z 08005KT 21/16 A2997 RMK A01 T02130157  RH  070%=      5-min Rain = 0
KSC1 230034Z 07005KT 21/16 A2996 RMK A01 T02130158  RH  071%=      5-min Rain = 0
KSC1 230035Z 08005KT 21/16 A2996 RMK A01 T02130158  RH  071%=      5-min Rain = 0
KSC1 230036Z 08005KT 21/16 A2996 RMK A01 T02130157  RH  071%=      5-min Rain = 0
KSC1 230037Z 08005KT 21/16 A2996 RMK A01 T02130158  RH  071%=      5-min Rain = 0
KSC1 230038Z 09005KT 21/16 A2996 RMK A01 T02130158  RH  071%=      5-min Rain = 0
KSC1 230039Z 08005KT 21/16 A2996 RMK A01 T02130158  RH  071%=      5-min Rain = 0
KSC1 230040Z 08005KT 21/16 A2996 RMK A01 T02120157  RH  071%=      5-min Rain = 0
KSC1 230041Z 08005KT 21/16 A2996 RMK A01 T02130158  RH  071%=      5-min Rain = 0
KSC1 230042Z 08005KT 21/16 A2996 RMK A01 T02120157  RH  071%=      5-min Rain = 0
KSC1 230043Z 08005KT 21/16 A2996 RMK A01 T02130157  RH  071%=      5-min Rain = 0
KSC1 230044Z 08006KT 21/16 A2996 RMK A01 T02120157  RH  071%=      5-min Rain = 0
KSC1 230045Z 07005KT 21/16 A2996 RMK A01 T02130157  RH  071%=      5-min Rain = 0
KSC1 230046Z 07005KT 21/16 A2996 RMK A01 T02120157  RH  071%=      5-min Rain = 0
KSC1 230047Z 08006KT 21/16 A2995 RMK A01 T02120157  RH  071%=      5-min Rain = 0
KSC1 230048Z 08006KT 21/16 A2995 RMK A01 T02120157  RH  071%=      5-min Rain = 0
KSC1 230049Z 08007KT 21/16 A2995 RMK A01 T02120157  RH  071%=      5-min Rain = 0
KSC1 230050Z 08006KT 21/16 A2995 RMK A01 T02110157  RH  071%=      5-min Rain = 0
KSC1 230051Z 08007KT 21/16 A2995 RMK A01 T02110157  RH  071%=      5-min Rain = 0
KSC1 230052Z 08006KT 21/16 A2994 RMK A01 T02110156  RH  071%=      5-min Rain = 0
KSC1 230053Z 08007KT 21/16 A2994 RMK A01 T02110156  RH  071%=      5-min Rain = 0
KSC1 230054Z 09007KT 21/16 A2995 RMK A01 T02110156  RH  071%=      5-min Rain = 0
KSC1 230055Z 09006KT 21/16 A2995 RMK A01 T02100156  RH  071%=      5-min Rain = 0
KSC1 230056Z 09006KT 21/16 A2995 RMK A01 T02100156  RH  071%=      5-min Rain = 0
KSC1 230057Z 09006KT 21/16 A2995 RMK A01 T02100156  RH  071%=      5-min Rain = 0
KSC1 230058Z 09006KT 21/16 A2996 RMK A01 T02100156  RH  071%=      5-min Rain = 0
KSC1 230059Z 09006KT 21/16 A2996 RMK A01 T02100156  RH  071%=      5-min Rain = 0
KSC1 230100Z 09004KT 21/16 A2996 RMK A01 T02100156  RH  071%=      5-min Rain = 0
KSC1 230101Z 09004KT 21/16 A2996 RMK A01 T02090156  RH  071%=      5-min Rain = 0
KSC1 230102Z 09005KT 21/16 A2996 RMK A01 T02090156  RH  071%=      5-min Rain = 0
KSC1 230103Z 09005KT 21/16 A2996 RMK A01 T02090155  RH  071%=      5-min Rain = 0
KSC1 230104Z 10004KT 21/16 A2996 RMK A01 T02100155  RH  071%=      5-min Rain = 0
KSC1 230105Z 10005KT 21/15 A2997 RMK A01 T02090154  RH  070%=      5-min Rain = 0
KSC1 230106Z 09004KT 21/15 A2997 RMK A01 T02090154  RH  070%=      5-min Rain = 0
KSC1 230107Z 09006KT 21/15 A2997 RMK A01 T02100153  RH  070%=      5-min Rain = 0
KSC1 230108Z 09006KT 21/15 A2997 RMK A01 T02100152  RH  069%=      5-min Rain = 0
KSC1 230109Z 09005KT 21/15 A2997 RMK A01 T02100151  RH  069%=      5-min Rain = 0
KSC1 230110Z 08005KT 21/15 A2997 RMK A01 T02110151  RH  069%=      5-min Rain = 0
KSC1 230111Z 09005KT 21/15 A2997 RMK A01 T02110150  RH  068%=      5-min Rain = 0
KSC1 230112Z 08006KT 21/15 A2997 RMK A01 T02110149  RH  068%=      5-min Rain = 0
KSC1 230113Z 08005KT 21/15 A2997 RMK A01 T02110149  RH  068%=      5-min Rain = 0
KSC1 230114Z 08004KT 21/15 A2997 RMK A01 T02110149  RH  068%=      5-min Rain = 0
KSC1 230115Z 08005KT 21/15 A2997 RMK A01 T02120150  RH  068%=      5-min Rain = 0
KSC1 230116Z 09004KT 21/15 A2997 RMK A01 T02120150  RH  068%=      5-min Rain = 0
KSC1 230117Z 08004KT 21/15 A2997 RMK A01 T02110149  RH  068%=      5-min Rain = 0
KSC1 230118Z 08004KT 21/15 A2997 RMK A01 T02110150  RH  068%=      5-min Rain = 0
KSC1 230119Z 08004KT 21/15 A2997 RMK A01 T02110149  RH  068%=      5-min Rain = 0
KSC1 230120Z 08004KT 21/15 A2997 RMK A01 T02110149  RH  068%=      5-min Rain = 0
KSC1 230121Z 08004KT 21/15 A2997 RMK A01 T02100149  RH  068%=      5-min Rain = 0
KSC1 230122Z 09004KT 21/15 A2997 RMK A01 T02100149  RH  068%=      5-min Rain = 0
KSC1 230123Z 09004KT 21/15 A2997 RMK A01 T02100149  RH  068%=      5-min Rain = 0
KSC1 230124Z 09004KT 21/15 A2997 RMK A01 T02100149  RH  068%=      5-min Rain = 0
KSC1 230125Z 09004KT 21/15 A2997 RMK A01 T02090149  RH  068%=      5-min Rain = 0
KSC1 230126Z 08004KT 21/15 A2996 RMK A01 T02090149  RH  069%=      5-min Rain = 0
KSC1 230127Z 08003KT 21/15 A2996 RMK A01 T02090150  RH  069%=      5-min Rain = 0
KSC1 230128Z 08003KT 21/15 A2996 RMK A01 T02080149  RH  069%=      5-min Rain = 0
KSC1 230129Z 08003KT 21/15 A2997 RMK A01 T02080149  RH  069%=      5-min Rain = 0
KSC1 230130Z 08003KT 21/15 A2997 RMK A01 T02080149  RH  069%=      5-min Rain = 0
KSC1 230131Z 08003KT 21/15 A2997 RMK A01 T02070149  RH  069%=      5-min Rain = 0
KSC1 230132Z 08002KT 21/15 A2997 RMK A01 T02070149  RH  069%=      5-min Rain = 0
KSC1 230133Z 08002KT 21/15 A2997 RMK A01 T02070149  RH  069%=      5-min Rain = 0
KSC1 230134Z 08002KT 21/15 A2997 RMK A01 T02070149  RH  070%=      5-min Rain = 0
KSC1 230135Z 08002KT 21/15 A2997 RMK A01 T02060149  RH  070%=      5-min Rain = 0
KSC1 230136Z 08001KT 21/15 A2997 RMK A01 T02060149  RH  070%=      5-min Rain = 0
KSC1 230137Z 08001KT 21/15 A2997 RMK A01 T02060149  RH  070%=      5-min Rain = 0
KSC1 230138Z 08001KT 21/15 A2997 RMK A01 T02060149  RH  070%=      5-min Rain = 0
KSC1 230139Z 08000KT 21/15 A2998 RMK A01 T02060150  RH  070%=      5-min Rain = 0
KSC1 230140Z 00000KT 21/15 A2998 RMK A01 T02050150  RH  071%=      5-min Rain = 0
KSC1 230141Z 00000KT 21/15 A2998 RMK A01 T02050150  RH  071%=      5-min Rain = 0
KSC1 230142Z 00000KT 20/15 A2998 RMK A01 T02040150  RH  071%=      5-min Rain = 0
KSC1 230143Z 00000KT 20/15 A2998 RMK A01 T02040149  RH  071%=      5-min Rain = 0
KSC1 230144Z 00000KT 20/15 A2998 RMK A01 T02040149  RH  071%=      5-min Rain = 0
KSC1 230145Z 00000KT 20/15 A2998 RMK A01 T02040150  RH  071%=      5-min Rain = 0
KSC1 230146Z 00000KT 20/15 A2998 RMK A01 T02030150  RH  071%=      5-min Rain = 0
KSC1 230147Z 00000KT 20/15 A2998 RMK A01 T02030149  RH  071%=      5-min Rain = 0
KSC1 230148Z 08000KT 20/15 A2998 RMK A01 T02030149  RH  071%=      5-min Rain = 0
KSC1 230149Z 09001KT 20/15 A2998 RMK A01 T02030149  RH  071%=      5-min Rain = 0
KSC1 230150Z 10001KT 20/15 A2998 RMK A01 T02030150  RH  071%=      5-min Rain = 0
KSC1 230151Z 10001KT 20/15 A2998 RMK A01 T02030152  RH  073%=      5-min Rain = 0
KSC1 230152Z 10001KT 20/16 A2997 RMK A01 T02020155  RH  074%=      5-min Rain = 0
KSC1 230153Z 10002KT 20/16 A2997 RMK A01 T02020155  RH  074%=      5-min Rain = 0
KSC1 230154Z 10001KT 20/16 A2997 RMK A01 T02020156  RH  075%=      5-min Rain = 0
KSC1 230155Z 10001KT 20/16 A2997 RMK A01 T02020158  RH  076%=      5-min Rain = 0
KSC1 230156Z 10001KT 20/16 A2997 RMK A01 T02010156  RH  076%=      5-min Rain = 0
KSC1 230157Z 10001KT 20/15 A2997 RMK A01 T02000154  RH  075%=      5-min Rain = 0
KSC1 230158Z 10001KT 20/15 A2997 RMK A01 T02000153  RH  075%=      5-min Rain = 0
KSC1 230159Z 10001KT 20/15 A2997 RMK A01 T02000154  RH  075%=      5-min Rain = 0
KSC1 230200Z 10001KT 20/16 A2997 RMK A01 T01990155  RH  075%=      5-min Rain = 0
KSC1 230201Z 10001KT 20/15 A2997 RMK A01 T01990154  RH  075%=      5-min Rain = 0
KSC1 230202Z 10001KT 20/16 A2997 RMK A01 T01980155  RH  076%=      5-min Rain = 0
KSC1 230203Z 10001KT 20/16 A2998 RMK A01 T01980157  RH  077%=      5-min Rain = 0
KSC1 230204Z 11001KT 20/16 A2998 RMK A01 T01980156  RH  077%=      5-min Rain = 0
KSC1 230205Z 12001KT 20/15 A2998 RMK A01 T01980153  RH  075%=      5-min Rain = 0
KSC1 230206Z 14001KT 20/15 A2998 RMK A01 T01980151  RH  074%=      5-min Rain = 0
KSC1 230207Z 15001KT 20/15 A2998 RMK A01 T01980151  RH  074%=      5-min Rain = 0
KSC1 230208Z 15001KT 20/15 A2998 RMK A01 T01980151  RH  074%=      5-min Rain = 0
KSC1 230209Z 15001KT 20/15 A2998 RMK A01 T01980151  RH  074%=      5-min Rain = 0
KSC1 230210Z 15001KT 20/15 A2997 RMK A01 T01980152  RH  075%=      5-min Rain = 0
KSC1 230211Z 15001KT 20/15 A2997 RMK A01 T01980152  RH  075%=      5-min Rain = 0
KSC1 230212Z 15001KT 20/15 A2997 RMK A01 T01980152  RH  075%=      5-min Rain = 0
KSC1 230213Z 13001KT 20/15 A2997 RMK A01 T01980153  RH  075%=      5-min Rain = 0
KSC1 230214Z 12002KT 20/15 A2997 RMK A01 T01980153  RH  075%=      5-min Rain = 0
KSC1 230215Z 11002KT 20/15 A2997 RMK A01 T01970153  RH  075%=      5-min Rain = 0
KSC1 230216Z 11002KT 20/15 A2997 RMK A01 T01980153  RH  075%=      5-min Rain = 0
KSC1 230217Z 11002KT 20/15 A2997 RMK A01 T01980153  RH  075%=      5-min Rain = 0
KSC1 230218Z 11002KT 20/15 A2997 RMK A01 T01980153  RH  075%=      5-min Rain = 0
KSC1 230219Z 11002KT 20/15 A2997 RMK A01 T01970153  RH  076%=      5-min Rain = 0
KSC1 230220Z 11002KT 20/15 A2997 RMK A01 T01980153  RH  076%=      5-min Rain = 0
KSC1 230221Z 11002KT 20/15 A2997 RMK A01 T01970153  RH  076%=      5-min Rain = 0
KSC1 230222Z 11002KT 20/15 A2997 RMK A01 T01970154  RH  076%=      5-min Rain = 0
KSC1 230223Z 12002KT 20/16 A2997 RMK A01 T01970155  RH  077%=      5-min Rain = 0
KSC1 230224Z 13002KT 20/16 A2998 RMK A01 T01960155  RH  077%=      5-min Rain = 0
KSC1 230225Z 14002KT 20/16 A2998 RMK A01 T01960155  RH  077%=      5-min Rain = 0
KSC1 230226Z 16002KT 20/15 A2998 RMK A01 T01950154  RH  077%=      5-min Rain = 0
KSC1 230227Z 17002KT 20/15 A2998 RMK A01 T01950154  RH  077%=      5-min Rain = 0
KSC1 230228Z 18002KT 20/15 A2998 RMK A01 T01960154  RH  077%=      5-min Rain = 0
KSC1 230229Z 19002KT 20/15 A2998 RMK A01 T01960154  RH  077%=      5-min Rain = 0
KSC1 230230Z 18002KT 20/15 A2998 RMK A01 T01950153  RH  076%=      5-min Rain = 0
KSC1 230231Z 18002KT 20/15 A2998 RMK A01 T01960153  RH  076%=      5-min Rain = 0
KSC1 230232Z 18002KT 20/15 A2998 RMK A01 T01960153  RH  076%=      5-min Rain = 0
KSC1 230233Z 17003KT 20/15 A2998 RMK A01 T01960153  RH  076%=      5-min Rain = 0
KSC1 230234Z 17003KT 20/15 A2998 RMK A01 T01960153  RH  076%=      5-min Rain = 0
KSC1 230235Z 16003KT 20/15 A2998 RMK A01 T01960152  RH  076%=      5-min Rain = 0
KSC1 230236Z 15003KT 20/15 A2998 RMK A01 T01950152  RH  076%=      5-min Rain = 0
KSC1 230237Z 15003KT 20/15 A2998 RMK A01 T01960152  RH  076%=      5-min Rain = 0
KSC1 230238Z 15003KT 20/15 A2998 RMK A01 T01960151  RH  075%=      5-min Rain = 0
KSC1 230239Z 15003KT 20/15 A2998 RMK A01 T01960151  RH  075%=      5-min Rain = 0
KSC1 230240Z 16004KT 20/15 A2999 RMK A01 T01960151  RH  075%=      5-min Rain = 0
KSC1 230241Z 15003KT 20/15 A2999 RMK A01 T01970150  RH  075%=      5-min Rain = 0
KSC1 230242Z 14003KT 20/15 A2999 RMK A01 T01970150  RH  074%=      5-min Rain = 0
KSC1 230243Z 14003KT 20/15 A2999 RMK A01 T01970150  RH  074%=      5-min Rain = 0
KSC1 230244Z 14004KT 20/15 A2998 RMK A01 T01970150  RH  074%=      5-min Rain = 0
KSC1 230245Z 15003KT 20/15 A2998 RMK A01 T01970149  RH  074%=      5-min Rain = 0
KSC1 230246Z 15003KT 20/15 A2998 RMK A01 T01970149  RH  074%=      5-min Rain = 0
KSC1 230247Z 15003KT 20/15 A2998 RMK A01 T01970149  RH  074%=      5-min Rain = 0
KSC1 230248Z 14003KT 20/15 A2998 RMK A01 T01970149  RH  074%=      5-min Rain = 0
KSC1 230249Z 13003KT 20/15 A2998 RMK A01 T01970149  RH  074%=      5-min Rain = 0
KSC1 230250Z 12002KT 20/15 A2998 RMK A01 T01970149  RH  074%=      5-min Rain = 0
KSC1 230251Z 13002KT 20/15 A2998 RMK A01 T01970149  RH  074%=      5-min Rain = 0
KSC1 230252Z 13002KT 20/15 A2999 RMK A01 T01970149  RH  074%=      5-min Rain = 0
KSC1 230253Z 15002KT 20/15 A2999 RMK A01 T01970149  RH  074%=      5-min Rain = 0
KSC1 230254Z 17003KT 20/15 A2999 RMK A01 T01970150  RH  074%=      5-min Rain = 0
KSC1 230255Z 16003KT 20/15 A2999 RMK A01 T01970149  RH  074%=      5-min Rain = 0
KSC1 230256Z 16003KT 20/15 A2999 RMK A01 T01970150  RH  074%=      5-min Rain = 0
KSC1 230257Z 17003KT 20/15 A2999 RMK A01 T01960150  RH  074%=      5-min Rain = 0
KSC1 230258Z 17004KT 20/15 A2999 RMK A01 T01960149  RH  074%=      5-min Rain = 0
KSC1 230259Z 16004KT 20/15 A2999 RMK A01 T01960148  RH  074%=      5-min Rain = 0
KSC1 230300Z 16004KT 20/15 A2999 RMK A01 T01960148  RH  074%=      5-min Rain = 0
KSC1 230301Z 15003KT 20/15 A2999 RMK A01 T01970149  RH  074%=      5-min Rain = 0
KSC1 230302Z 16003KT 20/15 A2999 RMK A01 T01970148  RH  074%=      5-min Rain = 0
KSC1 230303Z 16003KT 20/15 A2999 RMK A01 T01960148  RH  074%=      5-min Rain = 0
KSC1 230304Z 17004KT 20/15 A2999 RMK A01 T01970149  RH  074%=      5-min Rain = 0
KSC1 230305Z 18004KT 20/15 A2999 RMK A01 T01970149  RH  074%=      5-min Rain = 0
KSC1 230306Z 18004KT 20/15 A2999 RMK A01 T01960149  RH  074%=      5-min Rain = 0
KSC1 230307Z 18004KT 20/15 A2999 RMK A01 T01960149  RH  074%=      5-min Rain = 0
KSC1 230308Z 18004KT 20/15 A2999 RMK A01 T01960149  RH  074%=      5-min Rain = 0
KSC1 230309Z 17003KT 20/15 A2999 RMK A01 T01950148  RH  074%=      5-min Rain = 0
KSC1 230310Z 17003KT 20/15 A2999 RMK A01 T01960148  RH  074%=      5-min Rain = 0
KSC1 230311Z 17002KT 20/15 A2999 RMK A01 T01960147  RH  073%=      5-min Rain = 0
KSC1 230312Z 16003KT 20/15 A2999 RMK A01 T01960147  RH  073%=      5-min Rain = 0
KSC1 230313Z 16003KT 20/15 A2999 RMK A01 T01960147  RH  073%=      5-min Rain = 0
KSC1 230314Z 15003KT 20/15 A2999 RMK A01 T01960147  RH  073%=      5-min Rain = 0
KSC1 230315Z 15003KT 20/15 A2999 RMK A01 T01960148  RH  073%=      5-min Rain = 0
KSC1 230316Z 15003KT 20/15 A2999 RMK A01 T01960148  RH  073%=      5-min Rain = 0
KSC1 230317Z 15003KT 20/15 A2999 RMK A01 T01960148  RH  073%=      5-min Rain = 0
KSC1 230318Z 15003KT 20/15 A2999 RMK A01 T01960148  RH  074%=      5-min Rain = 0
KSC1 230319Z 15003KT 20/15 A2999 RMK A01 T01960148  RH  074%=      5-min Rain = 0
KSC1 230320Z 16003KT 20/15 A2999 RMK A01 T01960148  RH  074%=      5-min Rain = 0
KSC1 230321Z 16003KT 20/15 A2999 RMK A01 T01960148  RH  074%=      5-min Rain = 0
KSC1 230322Z 15003KT 20/15 A2999 RMK A01 T01950148  RH  074%=      5-min Rain = 0
KSC1 230323Z 15003KT 20/15 A2999 RMK A01 T01950148  RH  074%=      5-min Rain = 0
KSC1 230324Z 15003KT 20/15 A2999 RMK A01 T01950148  RH  074%=      5-min Rain = 0
KSC1 230325Z 14002KT 20/15 A2999 RMK A01 T01950148  RH  074%=      5-min Rain = 0
KSC1 230326Z 15003KT 20/15 A2999 RMK A01 T01950148  RH  075%=      5-min Rain = 0
KSC1 230327Z 15003KT 19/15 A2999 RMK A01 T01940148  RH  075%=      5-min Rain = 0
KSC1 230328Z 15003KT 19/15 A2999 RMK A01 T01940148  RH  075%=      5-min Rain = 0
KSC1 230329Z 15003KT 19/15 A2999 RMK A01 T01940148  RH  075%=      5-min Rain = 0
KSC1 230330Z 15003KT 19/15 A2999 RMK A01 T01940148  RH  075%=      5-min Rain = 0
KSC1 230331Z 14003KT 19/15 A2999 RMK A01 T01940148  RH  075%=      5-min Rain = 0
KSC1 230332Z 14003KT 19/15 A2999 RMK A01 T01940149  RH  075%=      5-min Rain = 0
KSC1 230333Z 15003KT 19/15 A2999 RMK A01 T01940148  RH  075%=      5-min Rain = 0
KSC1 230334Z 15003KT 19/15 A2999 RMK A01 T01940149  RH  075%=      5-min Rain = 0
KSC1 230335Z 15003KT 19/15 A2999 RMK A01 T01930148  RH  075%=      5-min Rain = 0
KSC1 230336Z 15003KT 19/15 A2999 RMK A01 T01940149  RH  075%=      5-min Rain = 0
KSC1 230337Z 15004KT 19/15 A2999 RMK A01 T01930149  RH  075%=      5-min Rain = 0
KSC1 230338Z 16004KT 19/15 A2999 RMK A01 T01930149  RH  076%=      5-min Rain = 0
KSC1 230339Z 16003KT 19/15 A2999 RMK A01 T01930149  RH  076%=      5-min Rain = 0
KSC1 230340Z 16004KT 19/15 A2999 RMK A01 T01920149  RH  076%=      5-min Rain = 0
KSC1 230341Z 17004KT 19/15 A2999 RMK A01 T01920149  RH  076%=      5-min Rain = 0
KSC1 230342Z 17004KT 19/15 A2999 RMK A01 T01920149  RH  076%=      5-min Rain = 0
KSC1 230343Z 17004KT 19/15 A2999 RMK A01 T01930148  RH  075%=      5-min Rain = 0
KSC1 230344Z 17005KT 19/15 A2999 RMK A01 T01930147  RH  075%=      5-min Rain = 0
KSC1 230345Z 17004KT 19/15 A2999 RMK A01 T01930147  RH  075%=      5-min Rain = 0
KSC1 230346Z 17004KT 19/15 A2999 RMK A01 T01930146  RH  074%=      5-min Rain = 0
KSC1 230347Z 16004KT 19/15 A2999 RMK A01 T01930146  RH  074%=      5-min Rain = 0
KSC1 230348Z 17005KT 19/15 A2999 RMK A01 T01930146  RH  074%=      5-min Rain = 0
KSC1 230349Z 17004KT 19/15 A2999 RMK A01 T01940146  RH  074%=      5-min Rain = 0
KSC1 230350Z 16005KT 19/15 A2999 RMK A01 T01940146  RH  074%=      5-min Rain = 0
KSC1 230351Z 16005KT 19/15 A2999 RMK A01 T01930146  RH  074%=      5-min Rain = 0
KSC1 230352Z 16005KT 19/15 A2999 RMK A01 T01930146  RH  074%=      5-min Rain = 0
KSC1 230353Z 17005KT 19/15 A2999 RMK A01 T01930145  RH  074%=      5-min Rain = 0
KSC1 230354Z 16005KT 19/15 A2999 RMK A01 T01920145  RH  074%=      5-min Rain = 0
KSC1 230355Z 17005KT 19/15 A2999 RMK A01 T01920145  RH  074%=      5-min Rain = 0
KSC1 230356Z 17005KT 19/14 A2999 RMK A01 T01910144  RH  074%=      5-min Rain = 0
KSC1 230357Z 17006KT 19/14 A2999 RMK A01 T01910144  RH  074%=      5-min Rain = 0
KSC1 230358Z 17004KT 19/14 A2999 RMK A01 T01910144  RH  074%=      5-min Rain = 0
KSC1 230359Z 17005KT 19/14 A2999 RMK A01 T01910144  RH  074%=      5-min Rain = 0
KSC1 230400Z 17005KT 19/14 A2999 RMK A01 T01910143  RH  074%=      5-min Rain = 0
KSC1 230401Z 17005KT 19/14 A2999 RMK A01 T01900143  RH  074%=      5-min Rain = 0
KSC1 230402Z 17005KT 19/14 A2999 RMK A01 T01890142  RH  074%=      5-min Rain = 0
KSC1 230403Z 16005KT 19/14 A2999 RMK A01 T01890142  RH  074%=      5-min Rain = 0
KSC1 230404Z 17005KT 19/14 A2999 RMK A01 T01890142  RH  074%=      5-min Rain = 0
KSC1 230405Z 17005KT 19/14 A2999 RMK A01 T01880142  RH  074%=      5-min Rain = 0
KSC1 230406Z 16005KT 19/14 A2999 RMK A01 T01880141  RH  074%=      5-min Rain = 0
KSC1 230407Z 17004KT 19/14 A2999 RMK A01 T01880142  RH  074%=      5-min Rain = 0
KSC1 230408Z 16005KT 19/14 A2999 RMK A01 T01880142  RH  074%=      5-min Rain = 0
KSC1 230409Z 16005KT 19/14 A2999 RMK A01 T01880142  RH  074%=      5-min Rain = 0
KSC1 230410Z 16005KT 19/14 A2999 RMK A01 T01870141  RH  075%=      5-min Rain = 0
KSC1 230411Z 17004KT 19/14 A2999 RMK A01 T01870141  RH  075%=      5-min Rain = 0
KSC1 230412Z 16004KT 19/14 A2999 RMK A01 T01860141  RH  075%=      5-min Rain = 0
KSC1 230413Z 17005KT 19/14 A2999 RMK A01 T01860140  RH  075%=      5-min Rain = 0
KSC1 230414Z 17005KT 19/14 A2999 RMK A01 T01860140  RH  075%=      5-min Rain = 0
KSC1 230415Z 17005KT 19/14 A2999 RMK A01 T01850140  RH  075%=      5-min Rain = 0
KSC1 230416Z 16004KT 19/14 A2999 RMK A01 T01850140  RH  075%=      5-min Rain = 0
KSC1 230417Z 17005KT 19/14 A2999 RMK A01 T01850140  RH  075%=      5-min Rain = 0
KSC1 230418Z 17005KT 19/14 A2998 RMK A01 T01850140  RH  075%=      5-min Rain = 0
KSC1 230419Z 16005KT 19/14 A2998 RMK A01 T01850140  RH  075%=      5-min Rain = 0
KSC1 230420Z 16005KT 19/14 A2998 RMK A01 T01850140  RH  075%=      5-min Rain = 0
KSC1 230421Z 16005KT 18/14 A2998 RMK A01 T01840140  RH  075%=      5-min Rain = 0
KSC1 230422Z 16006KT 18/14 A2998 RMK A01 T01840140  RH  075%=      5-min Rain = 0
KSC1 230423Z 16005KT 18/14 A2998 RMK A01 T01840139  RH  075%=      5-min Rain = 0
KSC1 230424Z 16005KT 18/14 A2998 RMK A01 T01840139  RH  075%=      5-min Rain = 0
KSC1 230425Z 16005KT 18/14 A2998 RMK A01 T01840139  RH  075%=      5-min Rain = 0
KSC1 230426Z 15007KT 18/14 A2998 RMK A01 T01840139  RH  075%=      5-min Rain = 0
KSC1 230427Z 16006KT 18/14 A2998 RMK A01 T01840140  RH  075%=      5-min Rain = 0
KSC1 230428Z 16006KT 18/14 A2998 RMK A01 T01840139  RH  075%=      5-min Rain = 0
KSC1 230429Z 15005KT 18/14 A2998 RMK A01 T01840139  RH  075%=      5-min Rain = 0
KSC1 230430Z 15006KT 18/14 A2998 RMK A01 T01840139  RH  075%=      5-min Rain = 0
KSC1 230431Z 16006KT 18/14 A2998 RMK A01 T01840139  RH  075%=      5-min Rain = 0
KSC1 230432Z 15006KT 18/14 A2998 RMK A01 T01840140  RH  075%=      5-min Rain = 0
KSC1 230433Z 16007KT 18/14 A2998 RMK A01 T01830139  RH  075%=      5-min Rain = 0
KSC1 230434Z 16006KT 18/14 A2998 RMK A01 T01830139  RH  075%=      5-min Rain = 0
KSC1 230435Z 16007KT 18/14 A2998 RMK A01 T01830139  RH  075%=      5-min Rain = 0
KSC1 230436Z 16005KT 18/14 A2998 RMK A01 T01830139  RH  075%=      5-min Rain = 0
KSC1 230437Z 16005KT 18/14 A2998 RMK A01 T01840139  RH  075%=      5-min Rain = 0
KSC1 230438Z 16006KT 18/14 A2998 RMK A01 T01840139  RH  075%=      5-min Rain = 0
KSC1 230439Z 16007KT 18/14 A2998 RMK A01 T01830139  RH  075%=      5-min Rain = 0
KSC1 230440Z 16006KT 18/14 A2998 RMK A01 T01830139  RH  075%=      5-min Rain = 0
KSC1 230441Z 16005KT 18/14 A2998 RMK A01 T01840139  RH  075%=      5-min Rain = 0
KSC1 230442Z 15006KT 18/14 A2998 RMK A01 T01840139  RH  075%=      5-min Rain = 0
KSC1 230443Z 15005KT 18/14 A2998 RMK A01 T01830139  RH  075%=      5-min Rain = 0
KSC1 230444Z 15006KT 18/14 A2997 RMK A01 T01840139  RH  075%=      5-min Rain = 0
KSC1 230445Z 15006KT 18/14 A2997 RMK A01 T01830139  RH  075%=      5-min Rain = 0
KSC1 230446Z 15006KT 18/14 A2997 RMK A01 T01830139  RH  075%=      5-min Rain = 0
KSC1 230447Z 15006KT 18/14 A2997 RMK A01 T01830139  RH  075%=      5-min Rain = 0
KSC1 230448Z 15005KT 18/14 A2997 RMK A01 T01830139  RH  075%=      5-min Rain = 0
KSC1 230449Z 15005KT 18/14 A2997 RMK A01 T01820139  RH  076%=      5-min Rain = 0
KSC1 230450Z 15006KT 18/14 A2997 RMK A01 T01820139  RH  076%=      5-min Rain = 0
KSC1 230451Z 16005KT 18/14 A2997 RMK A01 T01820139  RH  076%=      5-min Rain = 0
KSC1 230452Z 16005KT 18/14 A2997 RMK A01 T01810139  RH  076%=      5-min Rain = 0
KSC1 230453Z 16005KT 18/14 A2997 RMK A01 T01810139  RH  076%=      5-min Rain = 0
KSC1 230454Z 16005KT 18/14 A2998 RMK A01 T01810139  RH  076%=      5-min Rain = 0
KSC1 230455Z 16005KT 18/14 A2998 RMK A01 T01810139  RH  076%=      5-min Rain = 0
KSC1 230456Z 16004KT 18/14 A2998 RMK A01 T01810139  RH  076%=      5-min Rain = 0
KSC1 230457Z 16005KT 18/14 A2998 RMK A01 T01800138  RH  076%=      5-min Rain = 0
KSC1 230458Z 16005KT 18/14 A2998 RMK A01 T01800138  RH  077%=      5-min Rain = 0
KSC1 230459Z 16005KT 18/14 A2998 RMK A01 T01800139  RH  077%=      5-min Rain = 0

Page generated in 0.1229 seconds.